CW2988 Weather Reports


Display with metric or nautical units.
time (UTC)temp
F
wind
direction
speed
MPH
gust
MPH
rain 1hr
in
rain 24hr
in
rain mn
in
humidity
%
barometer
mb
20191117074337 36 119 6.0 11.0 0.00 0.00 0.00 88 1016.2
20191117074236 36 145 6.0 11.0 0.00 0.00 0.00 88 1016.2
20191117074125 36 128 7.0 11.0 0.00 0.00 0.00 88 1016.3
20191117074042 36 111 6.0 11.0 0.00 0.00 0.00 88 1016.3
20191117073936 36 138 6.0 11.0 0.00 0.00 0.00 88 1016.3
20191117073827 36 128 6.0 11.0 0.00 0.00 0.00 88 1016.2
20191117073744 36 125 6.0 11.0 0.00 0.00 0.00 88 1016.2
20191117073640 36 109 6.0 11.0 0.00 0.00 0.00 88 1016.2
20191117073537 36 130 6.0 11.0 0.00 0.00 0.00 88 1016.3
20191117073429 36 128 5.0 11.0 0.00 0.00 0.00 88 1016.3
20191117073342 36 138 6.0 12.0 0.00 0.00 0.00 88 1016.3
20191117073236 36 136 6.0 12.0 0.00 0.00 0.00 88 1016.4
20191117073126 36 115 6.0 12.0 0.00 0.00 0.00 88 1016.4
20191117073040 36 134 6.0 12.0 0.00 0.00 0.00 88 1016.4
20191117072936 36 146 6.0 12.0 0.00 0.00 0.00 88 1016.6
20191117072830 36 118 6.0 12.0 0.00 0.00 0.00 88 1016.5
20191117072730 36 178 6.0 12.0 0.00 0.00 0.00 88 1016.6
20191117072623 36 178 6.0 12.0 0.00 0.00 0.00 88 1016.6
20191117072541 36 178 6.0 12.0 0.00 0.00 0.00 88 1016.6
20191117072434 36 133 7.0 12.0 0.00 0.00 0.00 88 1016.6
20191117072327 36 136 7.0 12.0 0.00 0.00 0.00 88 1016.6
20191117072244 36 134 7.0 12.0 0.00 0.00 0.00 88 1016.6
20191117072139 36 151 7.0 12.0 0.00 0.00 0.00 88 1016.6
20191117072032 35 115 6.0 10.0 0.00 0.00 0.00 88 1016.6
20191117071943 36 151 6.0 10.0 0.00 0.00 0.00 88 1016.6
20191117071823 35 129 6.0 10.0 0.00 0.00 0.00 88 1016.6
20191117071741 35 122 6.0 10.0 0.00 0.00 0.00 88 1016.6
20191117071635 35 128 7.0 10.0 0.00 0.00 0.00 88 1016.6
20191117071531 35 130 6.0 10.0 0.00 0.00 0.00 88 1016.7
20191117071436 35 137 6.0 11.0 0.00 0.00 0.00 88 1016.7
20191117071329 35 159 6.0 11.0 0.00 0.00 0.00 88 1016.7
20191117071228 35 131 6.0 11.0 0.00 0.00 0.00 88 1016.7
20191117071125 35 126 6.0 11.0 0.00 0.00 0.00 88 1016.7
20191117071039 35 144 7.0 11.0 0.00 0.00 0.00 88 1016.7
20191117070933 35 88 7.0 11.0 0.00 0.00 0.00 88 1016.8
20191117070827 35 112 7.0 11.0 0.00 0.00 0.00 88 1016.8
20191117070742 35 154 6.0 11.0 0.00 0.00 0.00 88 1016.8
20191117070638 35 119 6.0 11.0 0.00 0.00 0.00 88 1016.9
20191117070533 35 121 5.0 9.0 0.00 0.00 0.00 88 1016.8
20191117070431 35 150 6.0 9.0 0.00 0.00 0.00 88 1016.9
20191117070344 35 142 6.0 9.0 0.00 0.00 0.00 88 1016.9
20191117070239 35 120 6.0 9.0 0.00 0.00 0.00 88 1016.9
20191117070132 35 136 5.0 9.0 0.00 0.00 0.00 88 1016.9
20191117070025 35 140 6.0 9.0 0.00 0.00 0.00 88 1016.9
20191117065934 35 124 6.0 9.0 0.00 0.00 0.00 88 1016.9
20191117065828 35 119 6.0 9.0 0.00 0.00 0.00 88 1016.9
20191117065725 35 148 6.0 9.0 0.00 0.00 0.00 88 1016.9
20191117065644 35 163 6.0 9.0 0.00 0.00 0.00 88 1016.9
20191117065536 35 128 6.0 9.0 0.00 0.00 0.00 88 1016.9
20191117065432 35 130 5.0 9.0 0.00 0.00 0.00 88 1017.0
20191117065327 35 105 5.0 10.0 0.00 0.00 0.00 88 1016.9
20191117065244 35 129 6.0 10.0 0.00 0.00 0.00 88 1016.9
20191117065138 35 129 6.0 10.0 0.00 0.00 0.00 88 1017.1
20191117065030 35 134 5.0 10.0 0.00 0.00 0.00 88 1017.1
20191117064927 35 119 6.0 10.0 0.00 0.00 0.00 88 1017.1
20191117064839 35 130 5.0 10.0 0.00 0.00 0.00 88 1017.1
20191117064733 35 123 5.0 10.0 0.00 0.00 0.00 88 1017.0
20191117064627 35 121 5.0 9.0 0.00 0.00 0.00 88 1017.1
20191117064544 35 107 5.0 9.0 0.00 0.00 0.00 88 1017.1
20191117064437 35 148 4.0 8.0 0.00 0.00 0.00 88 1017.1
20191117064329 35 131 4.0 8.0 0.00 0.00 0.00 88 1017.2
20191117064226 35 115 5.0 8.0 0.00 0.00 0.00 88 1017.2
20191117064142 35 142 5.0 8.0 0.00 0.00 0.00 88 1017.2
20191117064037 35 137 4.0 8.0 0.00 0.00 0.00 88 1017.2
20191117063932 35 125 4.0 8.0 0.00 0.00 0.00 88 1017.2
20191117063826 35 121 5.0 9.0 0.00 0.00 0.00 87 1017.3
20191117063743 35 136 5.0 9.0 0.00 0.00 0.00 87 1017.3
20191117063638 35 120 5.0 9.0 0.00 0.00 0.00 87 1017.3
20191117063530 35 142 5.0 9.0 0.00 0.00 0.00 87 1017.3
20191117063431 35 117 5.0 9.0 0.00 0.00 0.00 87 1017.4
20191117063327 35 140 4.0 9.0 0.00 0.00 0.00 87 1017.4
20191117063239 35 144 5.0 9.0 0.00 0.00 0.00 87 1017.4
20191117063133 35 146 6.0 9.0 0.00 0.00 0.00 87 1017.4
20191117063024 36 146 6.0 9.0 0.00 0.00 0.00 87 1017.5
20191117062942 36 137 6.0 9.0 0.00 0.00 0.00 87 1017.5
20191117062837 36 140 5.0 9.0 0.00 0.00 0.00 87 1017.5
20191117062736 36 112 5.0 9.0 0.00 0.00 0.00 87 1017.5
20191117062630 36 140 6.0 9.0 0.00 0.00 0.00 87 1017.5
20191117062526 36 143 6.0 9.0 0.00 0.00 0.00 87 1017.5
20191117062440 36 136 6.0 9.0 0.00 0.00 0.00 87 1017.5
20191117062334 36 175 6.0 9.0 0.00 0.00 0.00 87 1017.4
20191117062227 36 119 5.0 9.0 0.00 0.00 0.00 87 1017.5
20191117062140 36 131 5.0 9.0 0.00 0.00 0.00 87 1017.5
20191117062032 36 141 6.0 9.0 0.00 0.00 0.00 87 1017.4
20191117061930 36 119 5.0 9.0 0.00 0.00 0.00 87 1017.5
20191117061844 36 138 5.0 9.0 0.00 0.00 0.00 87 1017.5
20191117061739 36 144 6.0 9.0 0.00 0.00 0.00 87 1017.5
20191117061634 36 127 6.0 9.0 0.00 0.00 0.00 87 1017.5
20191117061529 36 105 5.0 9.0 0.00 0.00 0.00 87 1017.5
20191117061426 36 135 6.0 9.0 0.00 0.00 0.00 87 1017.5
20191117061336 36 145 6.0 9.0 0.00 0.00 0.00 87 1017.6
20191117061236 36 146 6.0 8.0 0.00 0.00 0.00 87 1017.5
20191117061132 36 148 5.0 8.0 0.00 0.00 0.00 87 1017.6
20191117061026 36 125 4.0 9.0 0.00 0.00 0.00 87 1017.6
20191117060942 36 115 4.0 9.0 0.00 0.00 0.00 87 1017.6
20191117060834 36 130 5.0 9.0 0.00 0.00 0.00 87 1017.6
20191117060729 36 103 5.0 9.0 0.00 0.00 0.00 87 1017.6
20191117060626 36 118 5.0 8.0 0.00 0.00 0.00 87 1017.6
20191117060525 36 135 5.0 8.0 0.00 0.00 0.00 86 1017.5
20191117060440 36 130 5.0 8.0 0.00 0.00 0.00 86 1017.5
20191117060335 36 125 6.0 8.0 0.00 0.00 0.00 86 1017.7
20191117060224 36 119 6.0 8.0 0.00 0.00 0.00 86 1017.7
20191117060146 36 150 6.0 8.0 0.00 0.00 0.00 86 1017.7
20191117060032 36 131 5.0 9.0 0.00 0.00 0.00 86 1017.7
20191117055943 36 113 5.0 9.0 0.00 0.00 0.00 86 1017.7
20191117055837 36 143 5.0 10.0 0.00 0.00 0.00 86 1017.8
20191117055628 36 113 5.0 10.0 0.00 0.00 0.00 86 1017.7
20191117055542 36 161 5.0 10.0 0.00 0.00 0.00 86 1017.8
20191117055433 36 117 5.0 10.0 0.00 0.00 0.00 86 1017.7
20191117055326 36 134 4.0 10.0 0.00 0.00 0.00 86 1017.7
20191117055240 36 126 4.0 10.0 0.00 0.00 0.00 86 1017.7
20191117055133 36 144 5.0 10.0 0.00 0.00 0.00 86 1017.7
20191117055030 36 153 5.0 10.0 0.00 0.00 0.00 86 1017.7
20191117054927 36 113 5.0 10.0 0.00 0.00 0.00 86 1017.7
20191117054844 36 103 5.0 10.0 0.00 0.00 0.00 86 1017.7
20191117054738 36 161 5.0 10.0 0.00 0.00 0.00 86 1017.7
20191117054631 36 74 4.0 10.0 0.00 0.00 0.00 86 1017.7
20191117054525 36 116 4.0 10.0 0.00 0.00 0.00 86 1017.7
20191117054440 36 133 5.0 10.0 0.00 0.00 0.00 86 1017.7
20191117054335 36 146 5.0 10.0 0.00 0.00 0.00 86 1017.8
20191117054233 36 90 5.0 8.0 0.00 0.00 0.00 86 1017.9
20191117054128 36 128 5.0 8.0 0.00 0.00 0.00 86 1017.9
20191117054041 36 146 5.0 8.0 0.00 0.00 0.00 86 1017.8
20191117053936 36 126 5.0 8.0 0.00 0.00 0.00 86 1017.9
20191117053832 36 130 5.0 8.0 0.00 0.00 0.00 86 1017.9
20191117053728 36 124 4.0 8.0 0.00 0.00 0.00 86 1017.9
20191117053642 36 139 4.0 8.0 0.00 0.00 0.00 86 1017.9
20191117053536 36 129 5.0 8.0 0.00 0.00 0.00 86 1018.0
20191117053432 36 136 4.0 10.0 0.00 0.00 0.00 86 1017.9
20191117053325 36 123 4.0 10.0 0.00 0.00 0.00 86 1017.9
20191117053241 36 144 4.0 10.0 0.00 0.00 0.00 86 1017.9
20191117053135 36 118 4.0 10.0 0.00 0.00 0.00 86 1017.9
20191117053031 36 138 5.0 10.0 0.00 0.00 0.00 85 1017.9
20191117052926 36 150 6.0 10.0 0.00 0.00 0.00 85 1017.9
20191117052841 36 124 6.0 10.0 0.00 0.00 0.00 85 1018.0
20191117052740 36 138 5.0 10.0 0.00 0.00 0.00 85 1017.9
20191117052634 36 137 5.0 10.0 0.00 0.00 0.00 85 1017.9
20191117052530 36 134 5.0 10.0 0.00 0.00 0.00 86 1018.0
20191117052425 36 137 5.0 10.0 0.00 0.00 0.00 86 1018.0
20191117052329 36 136 5.0 10.0 0.00 0.00 0.00 86 1018.0
20191117052242 36 138 6.0 10.0 0.00 0.00 0.00 85 1018.0
20191117052139 36 127 6.0 10.0 0.00 0.00 0.00 85 1018.0
20191117052034 36 121 5.0 10.0 0.00 0.00 0.00 85 1018.0
20191117051933 36 153 4.0 10.0 0.00 0.00 0.00 85 1018.0
20191117051827 36 142 4.0 10.0 0.00 0.00 0.00 85 1018.0
20191117051741 36 114 5.0 10.0 0.00 0.00 0.00 85 1018.1
20191117051630 36 119 5.0 10.0 0.00 0.00 0.00 85 1018.0
20191117051543 36 132 6.0 10.0 0.00 0.00 0.00 85 1018.0
20191117051439 36 149 5.0 11.0 0.00 0.00 0.00 85 1018.0
20191117051335 36 133 5.0 11.0 0.00 0.00 0.00 85 1018.1
20191117051233 36 132 6.0 11.0 0.00 0.00 0.00 85 1018.0
20191117051129 36 137 6.0 11.0 0.00 0.00 0.00 85 1018.1
20191117051025 36 134 6.0 11.0 0.00 0.00 0.00 85 1018.1
20191117050936 36 126 5.0 10.0 0.00 0.00 0.00 85 1018.1
20191117050827 36 137 5.0 10.0 0.00 0.00 0.00 85 1018.1
20191117050744 36 134 4.0 10.0 0.00 0.00 0.00 85 1018.1
20191117050637 36 182 5.0 10.0 0.00 0.00 0.00 85 1018.1
20191117050532 36 136 4.0 10.0 0.00 0.00 0.00 85 1018.1
20191117050431 36 119 4.0 10.0 0.00 0.00 0.00 85 1018.1
20191117050343 36 150 4.0 10.0 0.00 0.00 0.00 85 1018.1
20191117050233 36 119 5.0 10.0 0.00 0.00 0.00 85 1018.1
20191117050128 36 153 6.0 9.0 0.00 0.00 0.00 85 1018.1
20191117045934 36 114 4.0 8.0 0.00 0.00 0.00 85 1018.1
20191117045830 36 165 4.0 8.0 0.00 0.00 0.00 85 1018.1
20191117045725 36 105 4.0 8.0 0.00 0.00 0.00 85 1018.1
20191117045641 36 180 4.0 8.0 0.00 0.00 0.00 85 1018.2
20191117045535 36 127 4.0 9.0 0.00 0.00 0.00 85 1018.2
20191117045429 36 146 4.0 9.0 0.00 0.00 0.00 85 1018.2
20191117045325 36 139 4.0 9.0 0.00 0.00 0.00 85 1018.2
20191117045239 36 175 5.0 9.0 0.00 0.00 0.00 85 1018.2
20191117045131 36 82 5.0 10.0 0.00 0.00 0.00 85 1018.2
20191117045025 36 156 5.0 10.0 0.00 0.00 0.00 85 1018.2
20191117044943 36 131 4.0 10.0 0.00 0.00 0.00 85 1018.2
20191117044837 37 123 4.0 10.0 0.00 0.00 0.00 85 1018.3
20191117044731 37 146 4.0 10.0 0.00 0.00 0.00 85 1018.3
20191117044627 37 134 5.0 10.0 0.00 0.00 0.00 85 1018.2
20191117044542 37 158 5.0 11.0 0.00 0.00 0.00 85 1018.3
20191117044433 37 92 5.0 11.0 0.00 0.00 0.00 85 1018.3
20191117044329 37 100 6.0 11.0 0.00 0.00 0.00 85 1018.2
20191117044228 37 131 6.0 14.0 0.00 0.00 0.00 85 1018.2
20191117044143 37 125 6.0 14.0 0.00 0.00 0.00 85 1018.2
20191117044039 37 115 5.0 14.0 0.00 0.00 0.00 85 1018.2
20191117043935 37 118 6.0 14.0 0.00 0.00 0.00 85 1018.2
20191117043830 37 120 7.0 14.0 0.00 0.00 0.00 85 1018.2
20191117043742 37 124 7.0 14.0 0.00 0.00 0.00 85 1018.2
20191117043636 37 126 7.0 14.0 0.00 0.00 0.00 85 1018.2
20191117043530 37 140 7.0 14.0 0.00 0.00 0.00 85 1018.2
20191117043430 37 138 7.0 14.0 0.00 0.00 0.00 85 1018.2
20191117043325 37 140 6.0 12.0 0.00 0.00 0.00 85 1018.2
20191117043236 37 132 7.0 12.0 0.00 0.00 0.00 85 1018.2
20191117043130 37 155 7.0 12.0 0.00 0.00 0.00 85 1018.2
20191117043024 37 142 7.0 12.0 0.00 0.00 0.00 85 1018.2
20191117042940 37 112 7.0 12.0 0.00 0.00 0.00 85 1018.3
20191117042833 37 138 7.0 12.0 0.00 0.00 0.00 85 1018.3
20191117042733 37 137 8.0 12.0 0.00 0.00 0.00 85 1018.3
20191117042628 37 151 7.0 12.0 0.00 0.00 0.00 85 1018.3
20191117042540 37 118 7.0 13.0 0.00 0.00 0.00 85 1018.5
20191117042436 37 139 7.0 13.0 0.00 0.00 0.00 85 1018.4
20191117042331 37 134 7.0 12.0 0.00 0.00 0.00 85 1018.4
20191117042225 37 121 6.0 12.0 0.00 0.00 0.00 85 1018.5
20191117042139 37 103 6.0 12.0 0.00 0.00 0.00 85 1018.4
20191117042034 37 120 7.0 12.0 0.00 0.00 0.00 85 1018.3
20191117041827 37 133 6.0 12.0 0.00 0.00 0.00 85 1018.3
20191117041743 37 157 6.0 12.0 0.00 0.00 0.00 85 1018.3
20191117041635 37 132 7.0 12.0 0.00 0.00 0.00 85 1018.3
20191117041527 37 157 7.0 12.0 0.00 0.00 0.00 85 1018.4
20191117041444 37 126 6.0 13.0 0.00 0.00 0.00 85 1018.4
20191117041238 36 121 7.0 13.0 0.00 0.00 0.00 85 1018.4
20191117041131 36 144 7.0 14.0 0.00 0.00 0.00 85 1018.5
20191117041027 36 103 6.0 14.0 0.00 0.00 0.00 85 1018.5
20191117040942 36 101 6.0 12.0 0.00 0.00 0.00 85 1018.5
20191117040837 36 120 6.0 12.0 0.00 0.00 0.00 85 1018.5
20191117040732 36 101 6.0 12.0 0.00 0.00 0.00 85 1018.5
20191117040625 36 132 7.0 13.0 0.00 0.00 0.00 85 1018.6
20191117040526 36 103 7.0 13.0 0.00 0.00 0.00 85 1018.6
20191117040441 36 148 6.0 13.0 0.00 0.00 0.00 85 1018.6
20191117040331 36 130 7.0 13.0 0.00 0.00 0.00 85 1018.7
20191117040226 36 99 7.0 13.0 0.00 0.00 0.00 85 1018.7
20191117040142 36 126 6.0 13.0 0.00 0.00 0.00 85 1018.6
20191117040030 36 136 7.0 13.0 0.00 0.00 0.00 85 1018.7
20191117035941 36 123 7.0 13.0 0.00 0.00 0.00 85 1018.7
20191117035833 36 126 7.0 13.0 0.00 0.00 0.00 85 1018.7
20191117035730 36 146 6.0 11.0 0.00 0.00 0.00 85 1018.7
20191117035626 36 126 5.0 11.0 0.00 0.00 0.00 85 1018.7
20191117035539 36 124 5.0 11.0 0.00 0.00 0.00 85 1018.7
20191117035434 36 137 5.0 11.0 0.00 0.00 0.00 85 1018.6
20191117035233 36 137 5.0 11.0 0.00 0.00 0.00 85 1018.7
20191117035127 36 112 5.0 11.0 0.00 0.00 0.00 85 1018.7
20191117035042 36 135 5.0 11.0 0.00 0.00 0.00 85 1018.8
20191117034937 36 169 7.0 11.0 0.00 0.00 0.00 85 1018.7
20191117034833 36 143 6.0 11.0 0.00 0.00 0.00 85 1018.7
20191117034728 36 145 5.0 11.0 0.00 0.00 0.00 85 1018.7
20191117034641 36 130 5.0 11.0 0.00 0.00 0.00 85 1018.6
20191117034533 36 144 6.0 11.0 0.00 0.00 0.00 85 1018.6
20191117034426 36 113 6.0 11.0 0.00 0.00 0.00 85 1018.6
20191117034343 36 112 6.0 11.0 0.00 0.00 0.00 85 1018.6
20191117034236 36 131 6.0 11.0 0.00 0.00 0.00 85 1018.6
20191117034131 36 142 5.0 11.0 0.00 0.00 0.00 85 1018.6
20191117034026 36 149 5.0 11.0 0.00 0.00 0.00 85 1018.6
20191117033942 36 134 5.0 11.0 0.00 0.00 0.00 85 1018.6
20191117033838 36 136 4.0 11.0 0.00 0.00 0.00 85 1018.6
20191117033731 36 113 5.0 11.0 0.00 0.00 0.00 85 1018.6
20191117033642 36 137 6.0 11.0 0.00 0.00 0.00 85 1018.6
20191117033538 36 157 6.0 11.0 0.00 0.00 0.00 85 1018.6
20191117033431 36 136 6.0 12.0 0.00 0.00 0.00 85 1018.5
20191117033343 36 139 6.0 10.0 0.00 0.00 0.00 85 1018.5
20191117033238 36 151 6.0 11.0 0.00 0.00 0.00 85 1018.4
20191117033144 36 126 6.0 11.0 0.00 0.00 0.00 85 1018.4
20191117033038 36 110 6.0 11.0 0.00 0.00 0.00 85 1018.5
20191117032930 36 121 6.0 11.0 0.00 0.00 0.00 84 1018.5
20191117032825 36 127 6.0 11.0 0.00 0.00 0.00 84 1018.5
20191117032739 36 130 5.0 11.0 0.00 0.00 0.00 84 1018.5
20191117032632 36 142 6.0 11.0 0.00 0.00 0.00 84 1018.5
20191117032527 36 111 6.0 11.0 0.00 0.00 0.00 84 1018.5
20191117032441 36 128 6.0 11.0 0.00 0.00 0.00 84 1018.5
20191117032332 36 134 6.0 11.0 0.00 0.00 0.00 84 1018.6
20191117032234 36 121 6.0 11.0 0.00 0.00 0.00 84 1018.5
20191117032128 36 137 5.0 11.0 0.00 0.00 0.00 84 1018.4
20191117032041 36 115 5.0 11.0 0.00 0.00 0.00 84 1018.3
20191117031932 36 115 5.0 10.0 0.00 0.00 0.00 84 1018.3
20191117031830 36 125 5.0 10.0 0.00 0.00 0.00 84 1018.3
20191117031742 36 104 5.0 10.0 0.00 0.00 0.00 84 1018.3
20191117031638 36 80 5.0 10.0 0.00 0.00 0.00 84 1018.3
20191117031534 36 130 5.0 10.0 0.00 0.00 0.00 84 1018.3
20191117031430 36 140 5.0 10.0 0.00 0.00 0.00 84 1018.3
20191117031325 36 130 6.0 10.0 0.00 0.00 0.00 84 1018.3
20191117031239 36 134 6.0 10.0 0.00 0.00 0.00 84 1018.3
20191117031136 36 130 6.0 10.0 0.00 0.00 0.00 84 1018.3
20191117031037 36 140 5.0 10.0 0.00 0.00 0.00 84 1018.3
20191117030930 36 126 6.0 10.0 0.00 0.00 0.00 84 1018.3
20191117030843 36 138 6.0 10.0 0.00 0.00 0.00 84 1018.4
20191117030735 36 124 6.0 10.0 0.00 0.00 0.00 84 1018.4
20191117030627 36 129 5.0 10.0 0.00 0.00 0.00 84 1018.5
20191117030540 36 105 5.0 10.0 0.00 0.00 0.00 84 1018.4
20191117030435 36 142 6.0 10.0 0.00 0.00 0.00 84 1018.4
20191117030334 36 115 6.0 10.0 0.00 0.00 0.00 84 1018.4
20191117030228 36 146 7.0 11.0 0.00 0.00 0.00 84 1018.5
20191117030144 36 128 6.0 11.0 0.00 0.00 0.00 84 1018.5
20191117030039 36 130 6.0 11.0 0.00 0.00 0.00 84 1018.5
20191117025934 36 131 6.0 11.0 0.00 0.00 0.00 84 1018.5
20191117025829 36 147 6.0 11.0 0.00 0.00 0.00 84 1018.5
20191117025743 36 148 6.0 11.0 0.00 0.00 0.00 84 1018.5
20191117025637 36 130 6.0 11.0 0.00 0.00 0.00 84 1018.5
20191117025536 36 142 6.0 11.0 0.00 0.00 0.00 84 1018.5
20191117025426 36 117 6.0 11.0 0.00 0.00 0.00 84 1018.5
20191117025341 36 112 6.0 11.0 0.00 0.00 0.00 84 1018.5
20191117025233 36 133 5.0 11.0 0.00 0.00 0.00 84 1018.5
20191117025128 36 109 5.0 11.0 0.00 0.00 0.00 84 1018.5
20191117025042 36 140 5.0 11.0 0.00 0.00 0.00 84 1018.4
20191117024936 36 108 6.0 11.0 0.00 0.00 0.00 84 1018.3
20191117024834 36 116 7.0 11.0 0.00 0.00 0.00 84 1018.4
20191117024728 36 119 7.0 11.0 0.00 0.00 0.00 84 1018.3
20191117024644 36 133 6.0 11.0 0.00 0.00 0.00 84 1018.3
20191117024537 36 130 6.0 11.0 0.00 0.00 0.00 84 1018.2
20191117024432 36 144 6.0 11.0 0.00 0.00 0.00 84 1018.3
20191117024239 36 117 6.0 11.0 0.00 0.00 0.00 84 1018.2
20191117024134 36 127 6.0 11.0 0.00 0.00 0.00 84 1018.2
20191117024035 36 140 6.0 11.0 0.00 0.00 0.00 84 1018.2
20191117023927 36 175 6.0 11.0 0.00 0.00 0.00 84 1018.2
20191117023840 36 134 6.0 11.0 0.00 0.00 0.00 84 1018.2
20191117023734 36 125 6.0 10.0 0.00 0.00 0.00 84 1018.1
20191117023630 36 140 7.0 10.0 0.00 0.00 0.00 84 1018.1
20191117023524 36 103 7.0 11.0 0.00 0.00 0.00 84 1018.1
20191117023440 36 134 7.0 11.0 0.00 0.00 0.00 84 1018.1
20191117023338 36 130 6.0 10.0 0.00 0.00 0.00 84 1018.1
20191117023233 36 119 5.0 9.0 0.00 0.00 0.00 84 1018.0
20191117023129 36 117 5.0 8.0 0.00 0.00 0.00 84 1018.0
20191117023042 36 130 4.0 8.0 0.00 0.00 0.00 84 1018.0
20191117022937 36 121 4.0 9.0 0.00 0.00 0.00 84 1018.0
20191117022832 36 99 4.0 9.0 0.00 0.00 0.00 83 1018.0
20191117022728 36 143 4.0 10.0 0.00 0.00 0.00 83 1018.0
20191117022542 36 117 5.0 10.0 0.00 0.00 0.00 83 1018.0
20191117022326 36 127 6.0 10.0 0.00 0.00 0.00 83 1018.0
20191117022244 36 131 5.0 10.0 0.00 0.00 0.00 83 1018.0
20191117022140 36 140 5.0 10.0 0.00 0.00 0.00 83 1018.0
20191117022034 36 144 5.0 11.0 0.00 0.00 0.00 83 1018.0
20191117021927 35 127 5.0 11.0 0.00 0.00 0.00 83 1017.9
20191117021826 35 153 6.0 11.0 0.00 0.00 0.00 83 1017.9
20191117021737 36 128 5.0 11.0 0.00 0.00 0.00 83 1018.0
20191117021632 35 137 5.0 11.0 0.00 0.00 0.00 83 1018.0
20191117021528 36 138 5.0 11.0 0.00 0.00 0.00 83 1018.0
20191117021442 36 113 5.0 11.0 0.00 0.00 0.00 83 1018.0
20191117021337 36 168 6.0 11.0 0.00 0.00 0.00 83 1018.0
20191117021231 36 132 4.0 11.0 0.00 0.00 0.00 83 1018.0
20191117021125 36 128 4.0 10.0 0.00 0.00 0.00 83 1018.0
20191117021041 36 109 5.0 10.0 0.00 0.00 0.00 83 1018.0
20191117020934 36 136 4.0 10.0 0.00 0.00 0.00 83 1018.0
20191117020828 36 123 3.0 10.0 0.00 0.00 0.00 83 1018.0
20191117020743 36 148 3.0 10.0 0.00 0.00 0.00 83 1018.0
20191117020626 36 134 4.0 10.0 0.00 0.00 0.00 82 1018.0
20191117020544 36 136 4.0 10.0 0.00 0.00 0.00 82 1018.0
20191117020439 36 119 4.0 9.0 0.00 0.00 0.00 82 1018.0
20191117020337 36 126 4.0 8.0 0.00 0.00 0.00 82 1017.9
20191117020230 36 109 4.0 8.0 0.00 0.00 0.00 82 1017.9
20191117020153 36 101 4.0 8.0 0.00 0.00 0.00 82 1017.9
20191117020041 36 116 5.0 10.0 0.00 0.00 0.00 82 1018.0
20191117015932 36 132 5.0 10.0 0.00 0.00 0.00 82 1018.0
20191117015828 36 152 4.0 10.0 0.00 0.00 0.00 82 1018.0
20191117015741 36 127 4.0 10.0 0.00 0.00 0.00 82 1018.0
20191117015634 36 113 3.0 10.0 0.00 0.00 0.00 82 1018.0
20191117015531 36 125 4.0 10.0 0.00 0.00 0.00 82 1018.0
20191117015427 36 138 5.0 10.0 0.00 0.00 0.00 82 1018.1
20191117015342 36 136 5.0 10.0 0.00 0.00 0.00 82 1018.1
20191117015301 36 129 5.0 10.0 0.00 0.00 0.00 82 1018.1
20191117015229 36 113 5.0 10.0 0.00 0.00 0.00 82 1018.2
20191117015205 36 134 5.0 10.0 0.00 0.00 0.00 82 1018.2
20191117015129 36 123 5.0 10.0 0.00 0.00 0.00 82 1018.2
20191117015058 36 155 5.0 10.0 0.00 0.00 0.00 82 1018.2
20191117015018 36 138 5.0 10.0 0.00 0.00 0.00 81 1018.2
20191117014917 36 129 5.0 11.0 0.00 0.00 0.00 81 1018.2
20191117014758 36 136 4.0 11.0 0.00 0.00 0.00 81 1018.2
20191117014646 36 136 4.0 11.0 0.00 0.00 0.00 81 1018.2
20191117014616 36 120 4.0 11.0 0.00 0.00 0.00 81 1018.2
20191117014519 36 107 5.0 11.0 0.00 0.00 0.00 81 1018.3
20191117014405 36 140 5.0 11.0 0.00 0.00 0.00 81 1018.3
20191117014311 36 148 4.0 11.0 0.00 0.00 0.00 81 1018.4
20191117014052 36 150 5.0 11.0 0.00 0.00 0.00 81 1018.3
20191117013426 36 132 5.0 10.0 0.00 0.00 0.00 81 1018.4
20191117013336 36 148 5.0 10.0 0.00 0.00 0.00 81 1018.4
20191117013235 36 92 5.0 10.0 0.00 0.00 0.00 81 1018.5
20191117013129 36 98 4.0 10.0 0.00 0.00 0.00 81 1018.5
20191117013042 36 148 5.0 10.0 0.00 0.00 0.00 80 1018.5
20191117012832 36 97 4.0 8.0 0.00 0.00 0.00 80 1018.5
20191117012731 36 121 4.0 8.0 0.00 0.00 0.00 80 1018.5
20191117012625 36 138 4.0 8.0 0.00 0.00 0.00 80 1018.5
20191117012539 36 142 4.0 8.0 0.00 0.00 0.00 80 1018.5
20191117012436 36 144 3.0 9.0 0.00 0.00 0.00 80 1018.5
20191117012332 36 134 3.0 9.0 0.00 0.00 0.00 80 1018.5
20191117012227 36 142 3.0 9.0 0.00 0.00 0.00 80 1018.5
20191117012140 36 99 3.0 9.0 0.00 0.00 0.00 80 1018.5
20191117012036 36 134 3.0 9.0 0.00 0.00 0.00 80 1018.6
20191117011932 36 115 4.0 9.0 0.00 0.00 0.00 80 1018.5
20191117011826 36 136 4.0 9.0 0.00 0.00 0.00 80 1018.5
20191117011638 37 123 4.0 9.0 0.00 0.00 0.00 79 1018.5
20191117011533 37 105 3.0 8.0 0.00 0.00 0.00 79 1018.5
20191117011426 37 137 4.0 6.0 0.00 0.00 0.00 79 1018.5
20191117011339 37 136 4.0 6.0 0.00 0.00 0.00 79 1018.6
20191117011244 37 113 4.0 8.0 0.00 0.00 0.00 79 1018.6
20191117011139 37 113 3.0 8.0 0.00 0.00 0.00 79 1018.6
20191117011032 37 120 3.0 8.0 0.00 0.00 0.00 79 1018.6
20191117010926 37 136 3.0 9.0 0.00 0.00 0.00 79 1018.6
20191117010841 37 164 3.0 9.0 0.00 0.00 0.00 79 1018.6
20191117010733 37 122 4.0 9.0 0.00 0.00 0.00 79 1018.6
20191117010629 37 128 3.0 9.0 0.00 0.00 0.00 79 1018.6
20191117010542 37 138 4.0 9.0 0.00 0.00 0.00 79 1018.6
20191117010436 37 144 4.0 9.0 0.00 0.00 0.00 79 1018.5
20191117010331 37 126 4.0 9.0 0.00 0.00 0.00 79 1018.5
20191117010230 37 90 5.0 9.0 0.00 0.00 0.00 79 1018.5
20191117010142 37 84 4.0 9.0 0.00 0.00 0.00 79 1018.5
20191117010037 37 129 4.0 9.0 0.00 0.00 0.00 79 1018.5
20191117005931 37 132 4.0 8.0 0.00 0.00 0.00 79 1018.4
20191117005827 37 102 4.0 8.0 0.00 0.00 0.00 79 1018.5
20191117005740 37 132 4.0 8.0 0.00 0.00 0.00 79 1018.5
20191117005635 37 113 5.0 8.0 0.00 0.00 0.00 79 1018.4
20191117005531 37 92 5.0 8.0 0.00 0.00 0.00 79 1018.4
20191117005430 37 128 5.0 9.0 0.00 0.00 0.00 79 1018.3
20191117005342 37 107 5.0 9.0 0.00 0.00 0.00 79 1018.3
20191117005236 37 115 5.0 9.0 0.00 0.00 0.00 79 1018.4
20191117005132 37 134 5.0 9.0 0.00 0.00 0.00 79 1018.5
20191117005024 37 130 5.0 9.0 0.00 0.00 0.00 79 1018.5
20191117004936 37 146 5.0 9.0 0.00 0.00 0.00 79 1018.5
20191117004832 37 131 5.0 9.0 0.00 0.00 0.00 79 1018.5
20191117004731 37 107 5.0 9.0 0.00 0.00 0.00 79 1018.5
20191117004641 37 111 5.0 9.0 0.00 0.00 0.00 79 1018.5
20191117004535 37 120 4.0 9.0 0.00 0.00 0.00 79 1018.6
20191117004431 37 113 4.0 9.0 0.00 0.00 0.00 79 1018.6
20191117004326 37 127 3.0 10.0 0.00 0.00 0.00 79 1018.7
20191117004242 37 134 3.0 10.0 0.00 0.00 0.00 79 1018.7
20191117004138 37 134 4.0 10.0 0.00 0.00 0.00 79 1018.8
20191117004032 37 124 5.0 10.0 0.00 0.00 0.00 79 1018.8
20191117003932 37 109 5.0 10.0 0.00 0.00 0.00 79 1018.8
20191117003828 38 131 5.0 10.0 0.00 0.00 0.00 79 1018.9
20191117003737 38 146 4.0 10.0 0.00 0.00 0.00 79 1018.9
20191117003630 38 134 5.0 10.0 0.00 0.00 0.00 79 1018.9
20191117003542 38 148 5.0 10.0 0.00 0.00 0.00 79 1018.9
20191117003436 38 110 5.0 10.0 0.00 0.00 0.00 79 1018.9
20191117003331 38 125 5.0 9.0 0.00 0.00 0.00 79 1018.9
20191117003228 38 152 5.0 9.0 0.00 0.00 0.00 79 1018.8
20191117003141 38 136 5.0 9.0 0.00 0.00 0.00 79 1018.8
20191117003035 38 142 5.0 9.0 0.00 0.00 0.00 79 1018.8
20191117002929 38 148 5.0 9.0 0.00 0.00 0.00 79 1018.8
20191117002849 38 121 6.0 9.0 0.00 0.00 0.00 79 1018.8
20191117002802 38 121 5.0 11.0 0.00 0.00 0.00 79 1018.8
20191117002720 38 111 6.0 11.0 0.00 0.00 0.00 79 1018.9
20191117002437 38 118 6.0 11.0 0.00 0.00 0.00 80 1018.9
20191117002337 38 118 6.0 11.0 0.00 0.00 0.00 80 1018.9
20191117002234 38 118 6.0 11.0 0.00 0.00 0.00 80 1018.8
20191117002130 38 118 6.0 11.0 0.00 0.00 0.00 80 1018.8
20191117002044 38 118 6.0 11.0 0.00 0.00 0.00 80 1018.8
20191117001937 38 126 5.0 11.0 0.00 0.00 0.00 80 1018.8
20191117001831 38 150 5.0 8.0 0.00 0.00 0.00 80 1018.8
20191117001727 38 129 4.0 9.0 0.00 0.00 0.00 80 1018.8
20191117001639 38 126 4.0 9.0 0.00 0.00 0.00 80 1018.9
20191117001536 38 131 4.0 9.0 0.00 0.00 0.00 80 1018.9
20191117001431 38 131 5.0 9.0 0.00 0.00 0.00 80 1018.8
20191117001326 38 131 5.0 9.0 0.00 0.00 0.00 81 1018.9
20191117001239 38 150 5.0 9.0 0.00 0.00 0.00 81 1018.9
20191117001134 38 140 5.0 9.0 0.00 0.00 0.00 81 1018.9
20191117001028 38 122 5.0 9.0 0.00 0.00 0.00 81 1018.9
20191117000940 38 94 4.0 9.0 0.00 0.00 0.00 81 1018.9
20191117000838 38 129 5.0 9.0 0.00 0.00 0.00 81 1018.9
20191117000733 38 126 5.0 9.0 0.00 0.00 0.00 81 1018.9
20191117000625 38 144 4.0 8.0 0.00 0.00 0.00 81 1018.9
20191117000539 38 152 4.0 8.0 0.00 0.00 0.00 81 1018.9
20191117000434 38 147 5.0 11.0 0.00 0.00 0.00 82 1018.9
20191117000327 38 120 4.0 11.0 0.00 0.00 0.00 82 1018.9
20191117000244 38 117 4.0 11.0 0.00 0.00 0.00 82 1018.9
20191117000137 38 148 4.0 11.0 0.00 0.00 0.00 82 1019.0
20191117000032 38 124 4.0 11.0 0.00 0.00 0.00 82 1019.0
20191116235941 38 108 4.0 11.0 0.00 0.00 0.00 82 1019.0
20191116235831 38 136 4.0 11.0 0.00 0.00 0.00 83 1019.1
20191116235726 38 106 4.0 11.0 0.00 0.00 0.00 82 1019.1
20191116235640 38 116 5.0 11.0 0.00 0.00 0.00 83 1019.1
20191116235531 38 112 4.0 9.0 0.00 0.00 0.00 83 1019.1
20191116235425 38 144 4.0 10.0 0.00 0.00 0.00 83 1019.2
20191116235237 38 128 4.0 10.0 0.00 0.00 0.00 83 1019.1
20191116235131 38 120 4.0 10.0 0.00 0.00 0.00 83 1019.1
20191116235029 38 126 4.0 10.0 0.00 0.00 0.00 83 1019.2
20191116234943 38 120 4.0 10.0 0.00 0.00 0.00 83 1019.2
20191116234837 38 149 5.0 10.0 0.00 0.00 0.00 83 1019.2
20191116234627 38 166 5.0 10.0 0.00 0.00 0.00 84 1019.2
20191116234526 38 118 4.0 10.0 0.00 0.00 0.00 84 1019.1
20191116234440 38 127 4.0 9.0 0.00 0.00 0.00 84 1019.2
20191116234331 38 143 4.0 9.0 0.00 0.00 0.00 84 1019.1
20191116234226 38 129 4.0 9.0 0.00 0.00 0.00 84 1019.1
20191116234139 38 123 4.0 9.0 0.00 0.00 0.00 84 1019.0
20191116234033 38 137 4.0 9.0 0.00 0.00 0.00 84 1019.0
20191116233929 38 130 4.0 11.0 0.00 0.00 0.00 84 1018.9
20191116233828 38 114 3.0 11.0 0.00 0.00 0.00 84 1018.9
20191116233740 38 130 2.0 11.0 0.00 0.00 0.00 84 1018.9
20191116233638 38 134 2.0 11.0 0.00 0.00 0.00 84 1018.8
20191116233530 38 112 3.0 11.0 0.00 0.00 0.00 84 1018.8
20191116233424 39 127 4.0 11.0 0.00 0.00 0.00 84 1018.8
20191116233230 39 151 3.0 11.0 0.00 0.00 0.00 84 1018.7
20191116233043 39 143 4.0 11.0 0.00 0.00 0.00 84 1018.7
20191116232938 39 148 4.0 8.0 0.00 0.00 0.00 84 1018.6
20191116232830 39 149 4.0 8.0 0.00 0.00 0.00 84 1018.6
20191116232743 39 115 4.0 8.0 0.00 0.00 0.00 84 1018.6
20191116232638 39 98 4.0 8.0 0.00 0.00 0.00 84 1018.6
20191116232530 39 144 4.0 8.0 0.00 0.00 0.00 84 1018.6
20191116232443 39 157 4.0 8.0 0.00 0.00 0.00 84 1018.6
20191116232336 39 144 4.0 11.0 0.00 0.00 0.00 84 1018.5
20191116232232 39 154 4.0 11.0 0.00 0.00 0.00 84 1018.6
20191116232126 39 111 4.0 11.0 0.00 0.00 0.00 84 1018.5
20191116232044 39 132 4.0 11.0 0.00 0.00 0.00 84 1018.5
20191116231937 39 145 4.0 11.0 0.00 0.00 0.00 84 1018.5
20191116231830 39 107 4.0 11.0 0.00 0.00 0.00 84 1018.4
20191116231744 39 126 4.0 11.0 0.00 0.00 0.00 84 1018.4
20191116231635 39 121 5.0 11.0 0.00 0.00 0.00 84 1018.4
20191116231534 39 144 5.0 11.0 0.00 0.00 0.00 84 1018.4
20191116231443 39 123 5.0 11.0 0.00 0.00 0.00 84 1018.4
20191116231327 39 117 5.0 11.0 0.00 0.00 0.00 84 1018.3
20191116231244 39 96 5.0 12.0 0.00 0.00 0.00 84 1018.3
20191116231138 39 87 5.0 12.0 0.00 0.00 0.00 84 1018.3
20191116231034 39 72 6.0 12.0 0.00 0.00 0.00 84 1018.3
20191116230928 39 126 6.0 12.0 0.00 0.00 0.00 84 1018.3
20191116230843 39 93 5.0 12.0 0.00 0.00 0.00 84 1018.3
20191116230726 39 88 6.0 12.0 0.00 0.00 0.00 84 1018.3
20191116230643 39 117 6.0 12.0 0.00 0.00 0.00 84 1018.3
20191116230539 39 104 6.0 12.0 0.00 0.00 0.00 84 1018.3
20191116230431 39 107 6.0 12.0 0.00 0.00 0.00 84 1018.3
20191116230344 39 112 6.0 13.0 0.00 0.00 0.00 84 1018.3
20191116230238 39 118 5.0 13.0 0.00 0.00 0.00 84 1018.3
20191116230133 39 133 5.0 13.0 0.00 0.00 0.00 84 1018.3
20191116230029 39 88 5.0 13.0 0.00 0.00 0.00 84 1018.3
20191116225929 39 139 5.0 13.0 0.00 0.00 0.00 84 1018.4
20191116225841 39 96 6.0 13.0 0.00 0.00 0.00 84 1018.4
20191116225737 39 70 6.0 13.0 0.00 0.00 0.00 84 1018.4
20191116225630 39 117 5.0 13.0 0.00 0.00 0.00 84 1018.4
20191116225330 39 96 5.0 13.0 0.00 0.00 0.00 84 1018.4
20191116225226 40 67 6.0 13.0 0.00 0.00 0.00 84 1018.5
20191116225143 40 126 7.0 13.0 0.00 0.00 0.00 84 1018.5
20191116225032 40 95 7.0 13.0 0.00 0.00 0.00 83 1018.6
20191116224925 40 90 7.0 13.0 0.00 0.00 0.00 83 1018.6
20191116224837 40 109 7.0 13.0 0.00 0.00 0.00 83 1018.7
20191116224734 40 125 6.0 13.0 0.00 0.00 0.00 83 1018.8
20191116224629 40 148 6.0 13.0 0.00 0.00 0.00 84 1018.8
20191116224544 40 120 6.0 13.0 0.00 0.00 0.00 83 1018.8
20191116224443 40 126 6.0 13.0 0.00 0.00 0.00 83 1018.9
20191116224339 40 115 7.0 13.0 0.00 0.00 0.00 83 1018.9
20191116224233 40 107 5.0 13.0 0.00 0.00 0.00 83 1018.9
20191116224129 40 111 5.0 13.0 0.00 0.00 0.00 83 1018.9
20191116224043 40 86 7.0 13.0 0.00 0.00 0.00 83 1018.9
20191116223934 40 144 6.0 13.0 0.00 0.00 0.00 83 1018.9
20191116223829 40 108 5.0 11.0 0.00 0.00 0.00 83 1019.0
20191116223745 40 129 6.0 11.0 0.00 0.00 0.00 83 1019.0
20191116223640 40 126 6.0 11.0 0.00 0.00 0.00 83 1019.1
20191116223539 40 93 6.0 10.0 0.00 0.00 0.00 83 1019.1
20191116223429 40 105 5.0 10.0 0.00 0.00 0.00 83 1019.2
20191116223343 40 96 4.0 9.0 0.00 0.00 0.00 83 1019.2
20191116223237 40 161 4.0 9.0 0.00 0.00 0.00 83 1019.3
20191116223131 40 112 4.0 9.0 0.00 0.00 0.00 83 1019.3
20191116223026 40 114 4.0 9.0 0.00 0.00 0.00 83 1019.3
20191116222939 40 108 4.0 9.0 0.00 0.00 0.00 83 1019.4
20191116222838 40 134 4.0 10.0 0.00 0.00 0.00 83 1019.4
20191116222732 40 92 4.0 10.0 0.00 0.00 0.00 83 1019.4
20191116222642 40 84 4.0 10.0 0.00 0.00 0.00 83 1019.4
20191116222537 40 145 4.0 10.0 0.00 0.00 0.00 83 1019.3
20191116222432 40 130 4.0 10.0 0.00 0.00 0.00 83 1019.3
20191116222327 40 137 4.0 10.0 0.00 0.00 0.00 83 1019.3
20191116222242 40 136 3.0 10.0 0.00 0.00 0.00 83 1019.3
20191116222135 40 145 4.0 10.0 0.00 0.00 0.00 83 1019.4
20191116222033 41 109 4.0 10.0 0.00 0.00 0.00 83 1019.3
20191116221944 41 132 4.0 10.0 0.00 0.00 0.00 83 1019.3
20191116221840 41 90 4.0 10.0 0.00 0.00 0.00 83 1019.3
20191116221730 41 109 5.0 9.0 0.00 0.00 0.00 83 1019.3
20191116221627 41 107 5.0 9.0 0.00 0.00 0.00 83 1019.3
20191116221541 41 107 5.0 9.0 0.00 0.00 0.00 83 1019.3
20191116221432 41 154 4.0 8.0 0.00 0.00 0.00 83 1019.4
20191116221332 41 121 3.0 7.0 0.00 0.00 0.00 83 1019.4
20191116221240 41 140 3.0 8.0 0.00 0.00 0.00 83 1019.4
20191116221135 41 99 3.0 8.0 0.00 0.00 0.00 83 1019.5
20191116221031 41 121 3.0 9.0 0.00 0.00 0.00 83 1019.5
20191116220925 41 125 3.0 9.0 0.00 0.00 0.00 83 1019.5
20191116220841 41 105 4.0 9.0 0.00 0.00 0.00 83 1019.5
20191116220736 41 107 3.0 9.0 0.00 0.00 0.00 83 1019.5
20191116220628 41 150 4.0 9.0 0.00 0.00 0.00 83 1019.5
20191116220547 41 117 4.0 9.0 0.00 0.00 0.00 83 1019.5
20191116220438 41 126 4.0 9.0 0.00 0.00 0.00 83 1019.5
20191116220333 41 106 4.0 9.0 0.00 0.00 0.00 83 1019.5
20191116220253 41 94 4.0 9.0 0.00 0.00 0.00 83 1019.5
20191116220207 41 119 5.0 9.0 0.00 0.00 0.00 83 1019.5
20191116220039 41 123 5.0 9.0 0.00 0.00 0.00 83 1019.4
20191116215931 41 132 4.0 9.0 0.00 0.00 0.00 83 1019.4
20191116215825 41 131 4.0 9.0 0.00 0.00 0.00 83 1019.4
20191116215742 41 123 4.0 9.0 0.00 0.00 0.00 83 1019.4
20191116215637 41 117 4.0 9.0 0.00 0.00 0.00 83 1019.4
20191116215532 41 117 4.0 8.0 0.00 0.00 0.00 83 1019.4
20191116215428 41 122 4.0 8.0 0.00 0.00 0.00 83 1019.4
20191116215329 41 148 4.0 8.0 0.00 0.00 0.00 83 1019.4
20191116215239 41 109 4.0 8.0 0.00 0.00 0.00 83 1019.4
20191116215134 41 128 4.0 9.0 0.00 0.00 0.00 83 1019.5
20191116215028 41 108 5.0 9.0 0.00 0.00 0.00 83 1019.5
20191116214944 41 157 5.0 9.0 0.00 0.00 0.00 83 1019.5
20191116214841 41 98 5.0 9.0 0.00 0.00 0.00 83 1019.5
20191116214732 41 111 5.0 9.0 0.00 0.00 0.00 83 1019.6
20191116214626 41 128 4.0 9.0 0.00 0.00 0.00 83 1019.6
20191116214543 41 130 4.0 9.0 0.00 0.00 0.00 83 1019.6
20191116214440 41 124 4.0 9.0 0.00 0.00 0.00 83 1019.6
20191116214334 41 109 4.0 9.0 0.00 0.00 0.00 83 1019.7
20191116214233 41 132 4.0 9.0 0.00 0.00 0.00 83 1019.7
20191116214127 41 111 5.0 9.0 0.00 0.00 0.00 83 1019.7
20191116214042 41 115 5.0 9.0 0.00 0.00 0.00 83 1019.7
20191116213935 41 131 4.0 9.0 0.00 0.00 0.00 83 1019.7
20191116213829 41 130 4.0 9.0 0.00 0.00 0.00 83 1019.7
20191116213745 41 159 4.0 9.0 0.00 0.00 0.00 83 1019.7
20191116213639 41 130 4.0 9.0 0.00 0.00 0.00 83 1019.8
20191116213533 41 123 4.0 9.0 0.00 0.00 0.00 83 1019.7
20191116213432 41 113 4.0 9.0 0.00 0.00 0.00 83 1019.7
20191116213242 41 89 4.0 9.0 0.00 0.00 0.00 83 1019.8
20191116213137 41 103 3.0 7.0 0.00 0.00 0.00 83 1019.8
20191116213032 41 101 3.0 7.0 0.00 0.00 0.00 83 1019.8
20191116212926 41 105 4.0 7.0 0.00 0.00 0.00 83 1019.8
20191116212841 41 117 4.0 7.0 0.00 0.00 0.00 83 1019.8
20191116212738 41 112 4.0 7.0 0.00 0.00 0.00 83 1019.8
20191116212628 41 92 3.0 7.0 0.00 0.00 0.00 83 1019.8
20191116212543 41 119 3.0 7.0 0.00 0.00 0.00 83 1019.8
20191116212439 41 97 3.0 7.0 0.00 0.00 0.00 83 1019.8
20191116212333 41 119 3.0 8.0 0.00 0.00 0.00 83 1019.8
20191116212247 41 146 3.0 8.0 0.00 0.00 0.00 83 1019.8
20191116212139 41 138 3.0 8.0 0.00 0.00 0.00 82 1019.8
20191116212033 41 110 3.0 8.0 0.00 0.00 0.00 83 1019.7
20191116211934 41 142 3.0 8.0 0.00 0.00 0.00 83 1019.8
20191116211826 42 135 4.0 10.0 0.00 0.00 0.00 83 1019.8
20191116211739 42 179 4.0 10.0 0.00 0.00 0.00 83 1019.8
20191116211634 42 122 4.0 10.0 0.00 0.00 0.00 83 1019.8
20191116211539 42 111 4.0 10.0 0.00 0.00 0.00 82 1019.8
20191116211434 42 124 4.0 10.0 0.00 0.00 0.00 82 1019.8
20191116211328 42 110 4.0 10.0 0.00 0.00 0.00 82 1019.7
20191116211226 42 130 4.0 10.0 0.00 0.00 0.00 82 1019.7
20191116211142 42 157 4.0 10.0 0.00 0.00 0.00 82 1019.7
20191116211034 42 117 5.0 10.0 0.00 0.00 0.00 82 1019.8
20191116210928 42 140 5.0 11.0 0.00 0.00 0.00 82 1019.8
20191116210845 42 148 4.0 10.0 0.00 0.00 0.00 82 1019.8
20191116210739 42 115 5.0 10.0 0.00 0.00 0.00 82 1019.7
20191116210635 42 107 4.0 10.0 0.00 0.00 0.00 82 1019.8
20191116210528 42 126 4.0 10.0 0.00 0.00 0.00 82 1019.7
20191116210426 42 113 4.0 10.0 0.00 0.00 0.00 82 1019.8
20191116210343 42 121 4.0 10.0 0.00 0.00 0.00 82 1019.8
20191116210238 42 123 5.0 10.0 0.00 0.00 0.00 82 1019.8
20191116210134 42 101 5.0 10.0 0.00 0.00 0.00 82 1019.8
20191116210030 42 111 5.0 10.0 0.00 0.00 0.00 82 1019.8
20191116205925 42 96 4.0 9.0 0.00 0.00 0.00 82 1019.8
20191116205840 42 146 4.0 9.0 0.00 0.00 0.00 82 1019.8
20191116205739 42 151 4.0 9.0 0.00 0.00 0.00 82 1019.8
20191116205632 42 103 5.0 9.0 0.00 0.00 0.00 82 1019.8
20191116205548 42 119 5.0 9.0 0.00 0.00 0.00 81 1019.8
20191116205439 42 113 4.0 9.0 0.00 0.00 0.00 81 1019.9
20191116205331 42 104 3.0 9.0 0.00 0.00 0.00 81 1019.8
20191116205226 42 124 4.0 9.0 0.00 0.00 0.00 81 1019.9
20191116205141 42 129 4.0 9.0 0.00 0.00 0.00 81 1019.9
20191116205032 42 109 4.0 9.0 0.00 0.00 0.00 81 1019.9
20191116204930 42 134 3.0 9.0 0.00 0.00 0.00 81 1020.0
20191116204825 42 74 4.0 9.0 0.00 0.00 0.00 81 1020.0
20191116204740 42 148 4.0 9.0 0.00 0.00 0.00 81 1020.0
20191116204633 42 132 4.0 9.0 0.00 0.00 0.00 81 1020.0
20191116204527 42 96 4.0 10.0 0.00 0.00 0.00 81 1020.0
20191116204441 42 98 4.0 10.0 0.00 0.00 0.00 81 1020.1
20191116204336 42 150 5.0 10.0 0.00 0.00 0.00 81 1020.1
20191116204235 42 108 5.0 10.0 0.00 0.00 0.00 81 1020.1
20191116204130 42 107 5.0 10.0 0.00 0.00 0.00 81 1020.2
20191116204044 42 46 5.0 10.0 0.00 0.00 0.00 81 1020.2
20191116203936 42 132 5.0 10.0 0.00 0.00 0.00 81 1020.2
20191116203830 42 131 5.0 10.0 0.00 0.00 0.00 80 1020.2
20191116203727 42 138 6.0 10.0 0.00 0.00 0.00 80 1020.1
20191116203641 42 137 6.0 10.0 0.00 0.00 0.00 80 1020.1
20191116203537 42 128 5.0 9.0 0.00 0.00 0.00 80 1020.1
20191116203328 42 97 5.0 9.0 0.00 0.00 0.00 80 1020.2
20191116203238 42 112 5.0 9.0 0.00 0.00 0.00 80 1020.2
20191116203129 42 130 5.0 11.0 0.00 0.00 0.00 80 1020.3
20191116203041 42 103 5.0 11.0 0.00 0.00 0.00 80 1020.3
20191116202935 42 153 5.0 11.0 0.00 0.00 0.00 80 1020.3
20191116202830 42 150 5.0 11.0 0.00 0.00 0.00 80 1020.3
20191116202728 42 122 5.0 11.0 0.00 0.00 0.00 80 1020.3
20191116202626 42 103 5.0 11.0 0.00 0.00 0.00 80 1020.3
20191116202539 42 105 5.0 11.0 0.00 0.00 0.00 80 1020.2
20191116202434 43 133 6.0 12.0 0.00 0.00 0.00 79 1020.3
20191116202326 43 145 7.0 12.0 0.00 0.00 0.00 79 1020.2
20191116202241 43 98 7.0 13.0 0.00 0.00 0.00 79 1020.3
20191116202137 43 110 6.0 12.0 0.00 0.00 0.00 79 1020.3
20191116202031 43 140 6.0 12.0 0.00 0.00 0.00 79 1020.3
20191116201928 43 93 7.0 12.0 0.00 0.00 0.00 79 1020.3
20191116201844 43 127 7.0 12.0 0.00 0.00 0.00 79 1020.3
20191116201734 43 117 7.0 12.0 0.00 0.00 0.00 79 1020.4
20191116201630 43 126 6.0 12.0 0.00 0.00 0.00 79 1020.3
20191116201525 43 140 6.0 11.0 0.00 0.00 0.00 79 1020.4
20191116201441 43 101 6.0 11.0 0.00 0.00 0.00 79 1020.4
20191116201335 43 90 6.0 13.0 0.00 0.00 0.00 78 1020.4
20191116201235 43 134 5.0 13.0 0.00 0.00 0.00 78 1020.4
20191116201130 43 138 6.0 13.0 0.00 0.00 0.00 78 1020.4
20191116201044 43 156 5.0 13.0 0.00 0.00 0.00 78 1020.4
20191116200825 43 131 7.0 13.0 0.00 0.00 0.00 78 1020.5
20191116200741 43 130 7.0 14.0 0.00 0.00 0.00 78 1020.5
20191116200634 43 111 6.0 14.0 0.00 0.00 0.00 78 1020.5
20191116200530 43 128 7.0 14.0 0.00 0.00 0.00 77 1020.5
20191116200429 43 117 8.0 14.0 0.00 0.00 0.00 77 1020.6
20191116200240 43 153 7.0 16.0 0.00 0.00 0.00 77 1020.7
20191116200156 43 125 7.0 16.0 0.00 0.00 0.00 77 1020.7
20191116200041 44 160 7.0 16.0 0.00 0.00 0.00 77 1020.7
20191116195932 44 169 8.0 16.0 0.00 0.00 0.00 77 1020.7
20191116195827 44 140 7.0 16.0 0.00 0.00 0.00 77 1020.6
20191116195740 44 150 6.0 16.0 0.00 0.00 0.00 77 1020.7
20191116195639 44 123 7.0 16.0 0.00 0.00 0.00 77 1020.6
20191116195531 44 152 10.0 16.0 0.00 0.00 0.00 77 1020.7
20191116195452 44 151 11.0 16.0 0.00 0.00 0.00 77 1020.7
20191116195407 44 98 10.0 14.0 0.00 0.00 0.00 79 1020.6
20191116195128 44 73 9.0 14.0 0.00 0.00 0.00 79 1020.7
20191116195043 44 73 9.0 14.0 0.00 0.00 0.00 79 1020.7
20191116194933 44 73 9.0 14.0 0.00 0.00 0.00 79 1020.7
20191116194830 44 73 9.0 14.0 0.00 0.00 0.00 79 1020.7
20191116194727 44 73 9.0 14.0 0.00 0.00 0.00 79 1020.8
20191116194641 44 73 8.0 14.0 0.00 0.00 0.00 79 1020.8
20191116194535 44 159 6.0 13.0 0.00 0.00 0.00 79 1020.8
20191116194431 44 133 7.0 13.0 0.00 0.00 0.00 79 1020.8
20191116194345 44 84 7.0 13.0 0.00 0.00 0.00 79 1020.8
20191116194239 44 121 7.0 13.0 0.00 0.00 0.00 79 1020.8
20191116194134 44 132 6.0 13.0 0.00 0.00 0.00 79 1020.8
20191116194030 44 122 7.0 13.0 0.00 0.00 0.00 79 1020.8
20191116193941 44 124 7.0 13.0 0.00 0.00 0.00 79 1020.8
20191116193834 43 127 7.0 13.0 0.00 0.00 0.00 79 1020.9
20191116193727 43 109 6.0 13.0 0.00 0.00 0.00 79 1020.8
20191116193640 43 84 7.0 15.0 0.00 0.00 0.00 79 1020.9
20191116193535 43 134 8.0 15.0 0.00 0.00 0.00 79 1020.9
20191116193431 43 118 8.0 15.0 0.00 0.00 0.00 79 1020.9
20191116193330 43 132 7.0 15.0 0.00 0.00 0.00 79 1021.0
20191116193226 43 119 7.0 15.0 0.00 0.00 0.00 79 1021.0
20191116193141 43 109 7.0 15.0 0.00 0.00 0.00 79 1021.0
20191116193035 43 99 7.0 15.0 0.00 0.00 0.00 79 1021.0
20191116192929 43 143 8.0 15.0 0.00 0.00 0.00 79 1021.0
20191116192843 43 144 8.0 15.0 0.00 0.00 0.00 79 1021.0
20191116192740 43 99 7.0 15.0 0.00 0.00 0.00 79 1021.0
20191116192632 43 130 7.0 13.0 0.00 0.00 0.00 79 1021.0
20191116192528 43 146 7.0 13.0 0.00 0.00 0.00 79 1021.1
20191116192444 43 116 7.0 15.0 0.00 0.00 0.00 79 1021.1
20191116192336 43 115 7.0 15.0 0.00 0.00 0.00 79 1021.0
20191116192230 43 149 7.0 15.0 0.00 0.00 0.00 80 1021.1
20191116192144 43 113 6.0 15.0 0.00 0.00 0.00 80 1021.1
20191116192039 43 175 7.0 15.0 0.00 0.00 0.00 80 1021.1
20191116191934 43 128 8.0 15.0 0.00 0.00 0.00 80 1021.2
20191116191832 43 150 8.0 15.0 0.00 0.00 0.00 80 1021.2
20191116191726 43 132 10.0 15.0 0.00 0.00 0.00 80 1021.2
20191116191639 42 140 10.0 15.0 0.00 0.00 0.00 81 1021.2
20191116191535 42 105 8.0 16.0 0.00 0.00 0.00 81 1021.2
20191116191430 42 165 7.0 15.0 0.00 0.00 0.00 81 1021.2
20191116191341 42 121 8.0 15.0 0.00 0.00 0.00 81 1021.2
20191116191236 42 105 8.0 15.0 0.00 0.00 0.00 81 1021.3
20191116191144 42 152 9.0 15.0 0.00 0.00 0.00 81 1021.3
20191116191042 42 104 8.0 14.0 0.00 0.00 0.00 81 1021.3
20191116190936 42 82 7.0 16.0 0.00 0.00 0.00 82 1021.3
20191116190830 42 93 6.0 16.0 0.00 0.00 0.00 82 1021.4
20191116190726 42 140 7.0 16.0 0.00 0.00 0.00 82 1021.5
20191116190640 42 136 6.0 16.0 0.00 0.00 0.00 82 1021.5
20191116190534 41 128 6.0 16.0 0.00 0.00 0.00 82 1021.4
20191116190429 41 96 7.0 16.0 0.00 0.00 0.00 82 1021.5
20191116190326 41 125 8.0 16.0 0.00 0.00 0.00 82 1021.5
20191116190240 41 106 8.0 16.0 0.00 0.00 0.00 81 1021.5
20191116190132 41 80 8.0 16.0 0.00 0.00 0.00 82 1021.5
20191116190026 41 153 8.0 13.0 0.00 0.00 0.00 81 1021.5
20191116185940 41 126 8.0 13.0 0.00 0.00 0.00 81 1021.6
20191116185834 41 113 7.0 13.0 0.00 0.00 0.00 81 1021.6
20191116185726 41 117 7.0 13.0 0.00 0.00 0.00 81 1021.6
20191116185638 41 157 7.0 13.0 0.00 0.00 0.00 81 1021.7
20191116185537 41 84 8.0 13.0 0.00 0.00 0.00 81 1021.7
20191116185432 41 90 7.0 12.0 0.00 0.00 0.00 81 1021.7
20191116185326 41 114 5.0 12.0 0.00 0.00 0.00 80 1021.8
20191116185240 41 108 5.0 12.0 0.00 0.00 0.00 80 1021.8
20191116185133 41 94 7.0 12.0 0.00 0.00 0.00 80 1021.8
20191116185026 41 129 6.0 12.0 0.00 0.00 0.00 80 1021.9
20191116184940 41 109 6.0 12.0 0.00 0.00 0.00 80 1021.9
20191116184834 41 109 7.0 12.0 0.00 0.00 0.00 80 1022.0
20191116184730 41 136 6.0 12.0 0.00 0.00 0.00 80 1022.0
20191116184625 41 105 5.0 11.0 0.00 0.00 0.00 80 1022.0
20191116184542 41 140 5.0 11.0 0.00 0.00 0.00 80 1022.0
20191116184437 41 130 5.0 11.0 0.00 0.00 0.00 80 1022.2
20191116184329 41 128 6.0 11.0 0.00 0.00 0.00 80 1022.2
20191116184225 41 142 7.0 11.0 0.00 0.00 0.00 80 1022.2
20191116184140 41 103 6.0 11.0 0.00 0.00 0.00 80 1022.3
20191116184039 41 119 6.0 11.0 0.00 0.00 0.00 80 1022.3
20191116183936 41 126 6.0 11.0 0.00 0.00 0.00 80 1022.3
20191116183828 41 118 6.0 11.0 0.00 0.00 0.00 80 1022.4
20191116183743 41 98 6.0 10.0 0.00 0.00 0.00 80 1022.4
20191116183637 41 105 6.0 12.0 0.00 0.00 0.00 80 1022.4
20191116183531 41 131 6.0 12.0 0.00 0.00 0.00 80 1022.3
20191116183425 41 175 6.0 12.0 0.00 0.00 0.00 80 1022.3
20191116183326 41 77 6.0 12.0 0.00 0.00 0.00 80 1022.3
20191116183241 41 140 6.0 12.0 0.00 0.00 0.00 80 1022.3
20191116183136 41 136 6.0 12.0 0.00 0.00 0.00 80 1022.4
20191116183049 41 107 6.0 12.0 0.00 0.00 0.00 80 1022.4
20191116182936 41 121 7.0 12.0 0.00 0.00 0.00 81 1022.6
20191116182827 41 140 7.0 12.0 0.00 0.00 0.00 81 1022.6
20191116182743 41 130 6.0 13.0 0.00 0.00 0.00 81 1022.6
20191116182638 41 144 5.0 13.0 0.00 0.00 0.00 81 1022.7
20191116182535 41 117 6.0 13.0 0.00 0.00 0.00 82 1022.6
20191116182426 41 133 7.0 13.0 0.00 0.00 0.00 82 1022.7
20191116182333 41 145 6.0 13.0 0.00 0.00 0.00 82 1022.7
20191116182227 41 142 5.0 13.0 0.00 0.00 0.00 82 1022.8
20191116182141 41 136 5.0 13.0 0.00 0.00 0.00 82 1022.8
20191116182036 41 93 6.0 13.0 0.00 0.00 0.00 82 1022.8
20191116181929 41 123 5.0 13.0 0.00 0.00 0.00 82 1022.9
20191116181844 41 134 5.0 10.0 0.00 0.00 0.00 82 1022.9
20191116181743 40 138 6.0 11.0 0.00 0.00 0.00 82 1022.9
20191116181637 40 145 6.0 10.0 0.00 0.00 0.00 82 1023.0
20191116181532 40 138 7.0 10.0 0.00 0.00 0.00 82 1023.0
20191116181428 40 146 6.0 11.0 0.00 0.00 0.00 82 1023.0
20191116181341 40 142 5.0 10.0 0.00 0.00 0.00 82 1023.0
20191116181235 40 106 5.0 10.0 0.00 0.00 0.00 82 1023.0
20191116181130 40 153 5.0 10.0 0.00 0.00 0.00 82 1023.0
20191116181030 40 139 5.0 10.0 0.00 0.00 0.00 82 1023.0
20191116180940 40 115 5.0 10.0 0.00 0.00 0.00 82 1023.0
20191116180833 40 117 6.0 10.0 0.00 0.00 0.00 82 1023.0
20191116180727 40 106 6.0 9.0 0.00 0.00 0.00 82 1023.0
20191116180645 40 118 6.0 9.0 0.00 0.00 0.00 82 1023.0
20191116180540 40 117 6.0 10.0 0.00 0.00 0.00 82 1023.1
20191116180434 40 102 6.0 10.0 0.00 0.00 0.00 82 1023.1
20191116180329 40 134 6.0 10.0 0.00 0.00 0.00 82 1023.1
20191116180226 40 181 6.0 10.0 0.00 0.00 0.00 82 1023.2
20191116180142 40 111 7.0 10.0 0.00 0.00 0.00 82 1023.2
20191116180034 40 182 6.0 11.0 0.00 0.00 0.00 82 1023.1
20191116175925 40 122 5.0 11.0 0.00 0.00 0.00 82 1023.2
20191116175838 40 85 5.0 11.0 0.00 0.00 0.00 82 1023.2
20191116175732 40 124 5.0 11.0 0.00 0.00 0.00 82 1023.2
20191116175627 40 128 5.0 11.0 0.00 0.00 0.00 82 1023.3
20191116175525 40 116 4.0 11.0 0.00 0.02 0.00 82 1023.3
20191116175440 40 130 6.0 11.0 0.00 0.02 0.00 82 1023.3
20191116175335 40 130 6.0 11.0 0.00 0.02 0.00 82 1023.3
20191116175228 40 142 5.0 11.0 0.00 0.02 0.00 82 1023.3
20191116175144 40 132 5.0 10.0 0.00 0.02 0.00 82 1023.3
20191116175038 40 168 5.0 10.0 0.00 0.02 0.00 82 1023.4
20191116174934 40 98 7.0 12.0 0.00 0.02 0.00 82 1023.4
20191116174829 40 107 6.0 12.0 0.00 0.02 0.00 82 1023.4
20191116174728 40 147 6.0 12.0 0.00 0.02 0.00 82 1023.5
20191116174644 40 119 6.0 12.0 0.00 0.02 0.00 82 1023.5
20191116174538 40 132 6.0 12.0 0.00 0.02 0.00 82 1023.5
20191116174427 40 115 6.0 12.0 0.00 0.02 0.00 82 1023.5
20191116174340 40 146 5.0 13.0 0.00 0.02 0.00 82 1023.5
20191116174236 40 123 5.0 13.0 0.00 0.02 0.00 82 1023.6
20191116174132 40 133 4.0 13.0 0.00 0.02 0.00 82 1023.6
20191116174026 40 134 4.0 14.0 0.00 0.02 0.00 82 1023.6
20191116173941 40 130 4.0 14.0 0.00 0.02 0.00 82 1023.7
20191116173830 40 121 5.0 14.0 0.00 0.02 0.00 82 1023.7
20191116173741 40 121 5.0 14.0 0.00 0.02 0.00 82 1023.7
20191116173626 40 141 7.0 14.0 0.00 0.02 0.00 82 1023.7
20191116173542 40 153 8.0 14.0 0.00 0.02 0.00 82 1023.7
20191116173437 40 140 7.0 14.0 0.00 0.02 0.00 82 1023.8
20191116173331 40 98 6.0 14.0 0.00 0.02 0.00 82 1023.8
20191116173227 40 130 7.0 14.0 0.00 0.02 0.00 82 1023.8
20191116173132 40 139 7.0 14.0 0.00 0.02 0.00 83 1023.8
20191116173045 40 67 7.0 12.0 0.00 0.02 0.00 83 1023.8
20191116172943 40 121 7.0 12.0 0.00 0.02 0.00 83 1023.9
20191116172845 40 145 7.0 12.0 0.00 0.02 0.00 84 1023.8
20191116172739 40 140 6.0 12.0 0.00 0.02 0.00 84 1023.9
20191116172645 40 144 6.0 12.0 0.00 0.02 0.00 84 1023.9
20191116172539 40 152 6.0 12.0 0.00 0.02 0.00 85 1023.9
20191116172445 40 148 6.0 9.0 0.00 0.02 0.00 85 1023.9
20191116172344 40 110 6.0 10.0 0.00 0.02 0.00 85 1023.9
20191116172242 40 123 6.0 11.0 0.00 0.02 0.00 86 1024.0
20191116172135 40 138 5.0 11.0 0.00 0.02 0.00 86 1023.9
20191116172052 40 133 5.0 11.0 0.00 0.02 0.00 86 1023.9
20191116171941 40 144 6.0 11.0 0.00 0.02 0.00 86 1024.0
20191116171845 40 127 6.0 11.0 0.00 0.02 0.00 87 1024.0
20191116171739 40 105 5.0 11.0 0.00 0.02 0.00 87 1024.1
20191116171650 39 125 6.0 11.0 0.00 0.02 0.00 87 1024.1
20191116171541 39 154 7.0 11.0 0.00 0.02 0.00 88 1024.1
20191116171441 39 143 7.0 11.0 0.00 0.02 0.00 88 1024.1
20191116171341 39 134 6.0 10.0 0.00 0.02 0.00 88 1024.1
20191116171243 39 113 6.0 11.0 0.00 0.02 0.00 88 1024.1
20191116171140 38 193 5.0 12.0 0.00 0.02 0.00 88 1024.2
20191116171036 38 126 5.0 12.0 0.00 0.02 0.00 87 1024.2
20191116170935 38 142 6.0 12.0 0.00 0.02 0.00 87 1024.2
20191116170839 38 128 7.0 12.0 0.00 0.02 0.00 88 1024.3
20191116170742 38 157 7.0 12.0 0.00 0.02 0.00 87 1024.3
20191116170630 38 126 6.0 12.0 0.00 0.02 0.00 88 1024.3
20191116170533 38 149 7.0 12.0 0.00 0.02 0.00 88 1024.3
20191116170441 38 84 8.0 12.0 0.00 0.02 0.00 88 1024.3
20191116170341 37 134 8.0 12.0 0.00 0.02 0.00 88 1024.3
20191116170232 37 126 6.0 12.0 0.00 0.02 0.00 88 1024.4
20191116170136 37 138 6.0 12.0 0.00 0.02 0.00 88 1024.4
20191116165937 37 163 7.0 12.0 0.00 0.02 0.00 88 1024.4
20191116165843 37 130 7.0 12.0 0.00 0.02 0.00 88 1024.4
20191116165633 37 107 6.0 11.0 0.00 0.02 0.00 88 1024.4
20191116165540 37 113 6.0 11.0 0.00 0.02 0.00 88 1024.5
20191116165441 37 107 6.0 11.0 0.00 0.05 0.00 88 1024.5
20191116165335 37 115 6.0 11.0 0.00 0.05 0.00 88 1024.5
20191116165240 37 134 6.0 11.0 0.00 0.05 0.00 88 1024.6
20191116165143 37 146 6.0 11.0 0.00 0.05 0.00 88 1024.6
20191116165042 37 126 7.0 10.0 0.00 0.05 0.00 88 1024.6
20191116164938 37 128 6.0 10.0 0.00 0.05 0.00 89 1024.6
20191116164834 37 134 5.0 10.0 0.00 0.05 0.00 89 1024.7
20191116164739 37 134 4.0 10.0 0.00 0.05 0.00 89 1024.6
20191116164639 37 105 4.0 9.0 0.00 0.05 0.00 89 1024.6
20191116164437 37 150 5.0 9.0 0.00 0.05 0.00 89 1024.6
20191116164328 37 136 4.0 10.0 0.00 0.05 0.00 89 1024.7
20191116164235 37 137 5.0 10.0 0.00 0.05 0.00 89 1024.7
20191116164128 37 130 5.0 11.0 0.00 0.05 0.00 89 1024.7
20191116164036 36 149 5.0 11.0 0.00 0.05 0.00 89 1024.8
20191116163931 36 138 5.0 11.0 0.00 0.05 0.00 89 1024.8
20191116163840 36 148 4.0 11.0 0.00 0.05 0.00 89 1024.7
20191116163729 36 155 4.0 11.0 0.00 0.05 0.00 89 1024.8
20191116163635 36 136 4.0 12.0 0.00 0.05 0.00 89 1024.8
20191116163541 36 108 5.0 12.0 0.00 0.05 0.00 89 1024.8
20191116163439 36 138 6.0 12.0 0.00 0.05 0.00 89 1024.8
20191116163337 36 111 6.0 12.0 0.00 0.05 0.00 90 1024.8
20191116163233 36 146 5.0 12.0 0.00 0.05 0.00 90 1024.8
20191116163139 36 105 4.0 12.0 0.00 0.05 0.00 90 1024.8
20191116163040 36 114 5.0 13.0 0.00 0.05 0.00 90 1024.7
20191116162933 36 127 6.0 13.0 0.00 0.05 0.00 90 1024.8
20191116162826 36 120 5.0 13.0 0.00 0.05 0.00 90 1024.8
20191116162743 36 156 5.0 13.0 0.00 0.05 0.00 90 1024.8
20191116162633 36 110 6.0 13.0 0.00 0.05 0.00 90 1024.8
20191116162542 36 120 6.0 13.0 0.00 0.05 0.00 90 1024.8
20191116162438 36 148 6.0 13.0 0.00 0.05 0.00 90 1024.8
20191116162336 36 128 7.0 13.0 0.00 0.05 0.00 90 1024.9
20191116162235 36 112 6.0 13.0 0.00 0.05 0.00 90 1024.8
20191116162136 36 119 7.0 13.0 0.00 0.05 0.00 90 1024.8
20191116162034 36 122 7.0 11.0 0.00 0.05 0.00 90 1024.9
20191116161929 35 140 7.0 11.0 0.00 0.05 0.00 90 1024.9
20191116161825 35 113 6.0 11.0 0.00 0.05 0.00 90 1024.9
20191116161732 35 146 6.0 11.0 0.00 0.05 0.00 90 1024.8
20191116161637 35 140 7.0 11.0 0.00 0.05 0.00 90 1024.8
20191116161541 35 131 8.0 11.0 0.00 0.05 0.00 90 1024.9
20191116161436 35 101 8.0 12.0 0.00 0.05 0.00 91 1024.9
20191116161336 35 119 6.0 12.0 0.00 0.05 0.00 91 1024.9
20191116161235 35 163 6.0 12.0 0.00 0.05 0.00 91 1025.0
20191116161138 35 127 6.0 12.0 0.00 0.05 0.00 91 1024.9
20191116161038 35 126 6.0 12.0 0.00 0.05 0.00 91 1025.0
20191116160937 35 121 7.0 12.0 0.00 0.05 0.00 91 1024.9
20191116160837 35 148 6.0 10.0 0.00 0.05 0.00 91 1025.0
20191116160736 35 130 6.0 10.0 0.00 0.05 0.00 91 1024.9
20191116160639 35 97 7.0 10.0 0.00 0.05 0.00 91 1025.0
20191116160531 35 119 7.0 14.0 0.00 0.05 0.00 91 1025.0
20191116160443 35 176 7.0 14.0 0.00 0.05 0.00 91 1025.0
20191116160340 35 140 5.0 14.0 0.00 0.05 0.00 91 1025.0
20191116160256 35 113 5.0 14.0 0.00 0.05 0.00 91 1025.0
20191116160210 35 123 6.0 14.0 0.00 0.05 0.00 91 1025.0
20191116160041 34 160 6.0 14.0 0.00 0.05 0.00 91 1025.1
20191116155929 34 105 6.0 14.0 0.00 0.05 0.00 91 1025.1
20191116155841 34 126 7.0 14.0 0.00 0.05 0.00 91 1025.1
20191116155736 34 151 8.0 14.0 0.00 0.05 0.00 91 1025.1
20191116155636 34 140 7.0 14.0 0.00 0.05 0.00 91 1025.1
20191116155536 34 132 6.0 11.0 0.00 0.05 0.00 91 1025.1
20191116155437 34 88 4.0 10.0 0.00 0.05 0.00 91 1025.1
20191116155333 34 121 5.0 10.0 0.00 0.05 0.00 91 1025.2
20191116155244 34 138 5.0 10.0 0.00 0.05 0.00 91 1025.2
20191116155135 34 110 5.0 9.0 0.00 0.05 0.00 91 1025.2
20191116155038 34 134 5.0 9.0 0.00 0.05 0.00 91 1025.2
20191116154935 34 136 4.0 9.0 0.00 0.05 0.00 91 1025.2
20191116154835 34 148 4.0 9.0 0.00 0.05 0.00 91 1025.2
20191116154734 34 153 4.0 9.0 0.00 0.05 0.00 91 1025.2
20191116154636 34 163 5.0 9.0 0.00 0.05 0.00 91 1025.3
20191116154547 34 134 5.0 9.0 0.00 0.05 0.00 91 1025.3
20191116154429 34 137 5.0 9.0 0.00 0.05 0.00 91 1025.3
20191116154343 34 88 5.0 9.0 0.00 0.05 0.00 91 1025.3
20191116154232 34 123 4.0 9.0 0.00 0.05 0.00 91 1025.4
20191116154141 34 113 4.0 9.0 0.00 0.05 0.00 91 1025.4
20191116154035 34 157 4.0 9.0 0.00 0.05 0.00 91 1025.3
20191116153936 34 117 5.0 9.0 0.00 0.05 0.00 91 1025.4
20191116153840 33 157 5.0 9.0 0.00 0.05 0.00 91 1025.4
20191116153734 33 132 6.0 9.0 0.00 0.05 0.00 92 1025.4
20191116153640 33 115 5.0 9.0 0.00 0.05 0.00 92 1025.4
20191116153531 33 124 6.0 9.0 0.00 0.05 0.00 92 1025.3
20191116153436 33 151 6.0 9.0 0.00 0.05 0.00 92 1025.3
20191116153341 33 137 5.0 10.0 0.00 0.05 0.00 92 1025.3
20191116153230 33 146 4.0 9.0 0.00 0.05 0.00 92 1025.3
20191116153152 33 144 5.0 9.0 0.00 0.05 0.00 92 1025.3
20191116153038 33 128 5.0 9.0 0.00 0.05 0.00 92 1025.3
20191116152931 33 134 5.0 9.0 0.00 0.05 0.00 92 1025.3
20191116152738 33 107 5.0 9.0 0.00 0.05 0.00 92 1025.3
20191116152632 33 129 6.0 9.0 0.00 0.05 0.00 92 1025.3
20191116152531 33 135 5.0 9.0 0.00 0.05 0.00 92 1025.3
20191116152443 33 173 6.0 9.0 0.00 0.05 0.00 92 1025.3
20191116152333 33 148 6.0 11.0 0.00 0.05 0.00 92 1025.4
20191116152247 33 109 5.0 11.0 0.00 0.05 0.00 92 1025.4
20191116152138 33 127 5.0 11.0 0.00 0.05 0.00 92 1025.5
20191116152032 33 128 5.0 11.0 0.00 0.05 0.00 92 1025.5
20191116151927 33 126 5.0 11.0 0.00 0.05 0.00 92 1025.5
20191116151827 33 163 5.0 11.0 0.00 0.05 0.00 92 1025.5
20191116151740 33 132 5.0 11.0 0.00 0.05 0.00 92 1025.4
20191116151635 33 130 5.0 11.0 0.00 0.05 0.00 92 1025.4
20191116151528 33 119 6.0 11.0 0.00 0.05 0.00 92 1025.4
20191116151439 33 128 6.0 11.0 0.00 0.05 0.00 92 1025.4
20191116151333 33 103 6.0 11.0 0.00 0.05 0.00 92 1025.4
20191116151227 33 150 6.0 11.0 0.00 0.05 0.00 92 1025.3
20191116151142 33 154 6.0 11.0 0.00 0.05 0.00 92 1025.3
20191116151037 33 144 7.0 11.0 0.00 0.05 0.00 92 1025.4
20191116150929 33 127 7.0 11.0 0.00 0.05 0.00 92 1025.3
20191116150841 33 144 7.0 11.0 0.00 0.05 0.00 92 1025.3
20191116150630 32 149 6.0 11.0 0.00 0.05 0.00 92 1025.5
20191116150541 32 119 5.0 11.0 0.00 0.05 0.00 92 1025.5
20191116150435 32 128 6.0 11.0 0.00 0.05 0.00 92 1025.4
20191116150330 32 115 7.0 10.0 0.00 0.05 0.00 92 1025.4
20191116150231 32 140 7.0 10.0 0.00 0.05 0.00 92 1025.5
20191116150126 32 152 6.0 10.0 0.00 0.05 0.00 92 1025.5
20191116150041 32 114 5.0 13.0 0.00 0.05 0.00 92 1025.5
20191116145936 32 142 6.0 13.0 0.00 0.05 0.00 92 1025.5
20191116145831 32 122 7.0 13.0 0.00 0.05 0.00 92 1025.6
20191116145727 32 136 7.0 13.0 0.00 0.05 0.00 92 1025.6
20191116145642 32 159 7.0 13.0 0.00 0.05 0.00 92 1025.6
20191116145539 32 105 6.0 13.0 0.00 0.05 0.00 92 1025.6
20191116145430 32 159 6.0 13.0 0.00 0.05 0.00 92 1025.6
20191116145324 32 101 7.0 13.0 0.00 0.05 0.00 92 1025.6
20191116145237 32 145 7.0 13.0 0.00 0.05 0.00 92 1025.6
20191116145131 32 146 7.0 13.0 0.00 0.05 0.00 93 1025.6
20191116145025 32 122 7.0 13.0 0.00 0.05 0.00 93 1025.7
20191116144942 32 129 7.0 13.0 0.00 0.05 0.00 93 1025.7
20191116144835 32 157 7.0 13.0 0.00 0.05 0.00 92 1025.7
20191116144731 32 113 6.0 13.0 0.00 0.05 0.00 92 1025.7
20191116144627 32 139 6.0 12.0 0.00 0.05 0.00 92 1025.7
20191116144539 32 97 6.0 12.0 0.00 0.05 0.00 92 1025.7
20191116144431 32 111 6.0 12.0 0.00 0.05 0.00 92 1025.7
20191116144345 32 160 6.0 12.0 0.00 0.05 0.00 92 1025.7
20191116144233 32 128 7.0 12.0 0.00 0.05 0.00 92 1025.7
20191116144128 32 95 7.0 12.0 0.00 0.05 0.00 92 1025.8
20191116144036 32 129 6.0 12.0 0.00 0.05 0.00 93 1025.8
20191116143934 32 154 5.0 11.0 0.00 0.05 0.00 93 1025.8
20191116143829 32 161 6.0 11.0 0.00 0.05 0.00 93 1025.7
20191116143744 32 166 6.0 11.0 0.00 0.05 0.00 93 1025.7
20191116143640 32 134 5.0 11.0 0.00 0.05 0.00 93 1025.9
20191116143525 31 126 5.0 11.0 0.00 0.05 0.00 93 1025.8
20191116143440 31 97 6.0 11.0 0.00 0.05 0.00 93 1025.8
20191116143335 31 105 5.0 11.0 0.00 0.05 0.00 93 1025.8
20191116143233 31 147 5.0 10.0 0.00 0.05 0.00 93 1025.8
20191116143127 31 150 5.0 10.0 0.00 0.05 0.00 93 1025.8
20191116143044 31 141 5.0 10.0 0.00 0.05 0.00 93 1025.8
20191116142939 31 110 5.0 10.0 0.00 0.05 0.00 93 1025.8
20191116142839 31 130 5.0 10.0 0.00 0.05 0.00 93 1025.7
20191116142735 31 121 4.0 10.0 0.00 0.05 0.00 93 1025.7
20191116142628 31 127 5.0 10.0 0.00 0.05 0.00 93 1025.7
20191116142542 31 134 5.0 10.0 0.00 0.05 0.00 93 1025.7
20191116142441 31 136 5.0 10.0 0.00 0.05 0.00 93 1025.7
20191116142334 31 135 5.0 10.0 0.00 0.05 0.00 93 1025.7
20191116142228 31 122 4.0 11.0 0.00 0.05 0.00 93 1025.7
20191116142039 31 137 5.0 11.0 0.00 0.05 0.00 93 1025.8
20191116141930 31 136 5.0 11.0 0.00 0.05 0.00 93 1025.9
20191116141842 31 159 4.0 11.0 0.00 0.05 0.00 93 1025.9
20191116141738 31 131 3.0 11.0 0.00 0.05 0.00 93 1025.8
20191116141634 31 100 4.0 11.0 0.00 0.05 0.00 93 1025.8
20191116141529 31 126 4.0 9.0 0.00 0.05 0.00 93 1025.7
20191116141339 31 103 4.0 9.0 0.00 0.05 0.00 93 1025.7
20191116141234 31 139 5.0 9.0 0.00 0.05 0.00 93 1025.7
20191116141127 31 144 5.0 9.0 0.00 0.05 0.00 93 1025.8
20191116141044 31 136 4.0 9.0 0.00 0.05 0.00 93 1025.8
20191116140941 31 112 5.0 8.0 0.00 0.05 0.00 93 1025.8
20191116140836 31 124 5.0 8.0 0.00 0.05 0.00 93 1025.9
20191116140731 31 139 5.0 8.0 0.00 0.05 0.00 93 1025.9
20191116140626 30 130 5.0 8.0 0.00 0.05 0.00 93 1025.9
20191116140542 30 126 4.0 9.0 0.00 0.05 0.00 93 1025.9
20191116140433 30 111 5.0 9.0 0.00 0.05 0.00 93 1025.9
20191116140325 30 168 5.0 9.0 0.00 0.05 0.00 93 1025.8
20191116140241 30 118 5.0 8.0 0.00 0.05 0.00 93 1025.8
20191116140152 30 127 4.0 9.0 0.00 0.05 0.00 93 1025.8
20191116140037 30 135 4.0 9.0 0.00 0.05 0.00 93 1025.8
20191116135926 30 156 4.0 9.0 0.00 0.05 0.00 93 1025.9
20191116135839 30 117 4.0 9.0 0.00 0.05 0.00 93 1025.9
20191116135734 30 140 5.0 9.0 0.00 0.05 0.00 93 1025.9
20191116135628 30 128 5.0 9.0 0.00 0.05 0.00 93 1025.9
20191116135538 30 161 4.0 10.0 0.00 0.05 0.00 93 1025.9
20191116135432 30 115 4.0 10.0 0.00 0.05 0.00 93 1025.9
20191116135331 30 106 4.0 10.0 0.00 0.05 0.00 93 1025.9
20191116135224 30 126 5.0 10.0 0.00 0.05 0.00 93 1025.9
20191116135035 30 94 4.0 10.0 0.00 0.05 0.00 93 1025.8
20191116134930 29 140 4.0 10.0 0.00 0.05 0.00 93 1025.8
20191116134824 29 130 5.0 10.0 0.00 0.05 0.00 93 1025.8
20191116134740 29 132 5.0 10.0 0.00 0.05 0.00 93 1025.8
20191116134636 29 127 5.0 10.0 0.00 0.05 0.00 93 1025.8
20191116134531 29 111 5.0 8.0 0.00 0.05 0.00 93 1025.7
20191116134427 29 139 5.0 8.0 0.00 0.05 0.00 93 1025.7
20191116134341 29 132 5.0 9.0 0.00 0.05 0.00 92 1025.7
20191116134232 29 110 4.0 9.0 0.00 0.05 0.00 92 1025.8
20191116134127 29 121 4.0 9.0 0.00 0.05 0.00 93 1025.7
20191116134029 29 128 4.0 9.0 0.00 0.05 0.00 93 1025.7
20191116133944 29 115 4.0 9.0 0.00 0.05 0.00 93 1025.7
20191116133839 29 94 4.0 9.0 0.00 0.05 0.00 93 1025.7
20191116133732 29 101 4.0 9.0 0.00 0.05 0.00 93 1025.7
20191116133643 29 129 4.0 9.0 0.00 0.05 0.00 93 1025.7
20191116133538 29 142 5.0 9.0 0.00 0.05 0.00 93 1025.8
20191116133330 29 133 4.0 10.0 0.00 0.05 0.00 92 1025.7
20191116133225 29 138 4.0 10.0 0.00 0.05 0.00 92 1025.7
20191116133139 29 91 4.0 10.0 0.00 0.05 0.00 92 1025.7
20191116133041 29 115 5.0 10.0 0.00 0.05 0.00 92 1025.7
20191116132933 29 81 5.0 10.0 0.00 0.05 0.00 92 1025.7
20191116132827 29 132 5.0 10.0 0.00 0.05 0.00 92 1025.7
20191116132744 29 136 4.0 9.0 0.00 0.05 0.00 92 1025.7
20191116132640 29 159 4.0 7.0 0.00 0.05 0.00 92 1025.7
20191116132536 29 111 3.0 7.0 0.00 0.05 0.00 92 1025.7
20191116132430 29 113 4.0 8.0 0.00 0.05 0.00 92 1025.8
20191116132330 29 138 3.0 8.0 0.00 0.05 0.00 92 1025.8
20191116132141 29 117 3.0 8.0 0.00 0.05 0.00 92 1025.8
20191116132033 29 136 3.0 8.0 0.00 0.05 0.00 92 1025.8
20191116131925 29 119 3.0 8.0 0.00 0.05 0.00 92 1025.8
20191116131838 29 136 4.0 8.0 0.00 0.05 0.00 92 1025.8
20191116131730 29 101 4.0 8.0 0.00 0.05 0.00 92 1025.8
20191116131628 29 116 4.0 8.0 0.00 0.05 0.00 92 1025.7
20191116131543 29 94 5.0 8.0 0.00 0.05 0.00 92 1025.7
20191116131434 29 117 4.0 9.0 0.00 0.05 0.00 92 1025.8
20191116131327 29 120 4.0 9.0 0.00 0.05 0.00 92 1025.8
20191116131137 29 116 4.0 9.0 0.00 0.05 0.00 92 1025.8
20191116131031 29 126 4.0 9.0 0.00 0.05 0.00 92 1025.8
20191116130923 29 103 4.0 9.0 0.00 0.05 0.00 92 1025.8
20191116130844 29 131 4.0 11.0 0.00 0.05 0.00 92 1025.8
20191116130740 29 119 4.0 11.0 0.00 0.05 0.00 92 1025.8
20191116130634 29 109 4.0 11.0 0.00 0.05 0.00 92 1025.8
20191116130531 29 115 4.0 11.0 0.00 0.05 0.00 92 1025.7
20191116130426 29 91 4.0 11.0 0.00 0.05 0.00 92 1025.8
20191116130340 29 121 4.0 11.0 0.00 0.05 0.00 92 1025.8
20191116130232 29 146 4.0 11.0 0.00 0.05 0.00 92 1025.8
20191116130129 29 142 4.0 11.0 0.00 0.05 0.00 92 1025.8
20191116130043 29 132 4.0 11.0 0.00 0.05 0.00 92 1025.8
20191116125934 29 108 4.0 11.0 0.00 0.05 0.00 92 1025.8
20191116125825 29 114 3.0 10.0 0.00 0.05 0.00 92 1025.7
20191116125637 29 105 4.0 10.0 0.00 0.05 0.00 92 1025.8
20191116125531 29 140 4.0 8.0 0.00 0.05 0.00 92 1025.8
20191116125423 29 107 4.0 8.0 0.00 0.05 0.00 92 1025.8
20191116125343 29 123 4.0 8.0 0.00 0.05 0.00 92 1025.8
20191116125235 29 117 4.0 8.0 0.00 0.05 0.00 92 1025.8
20191116125131 29 108 4.0 8.0 0.00 0.05 0.00 92 1025.8
20191116125025 29 130 4.0 7.0 0.00 0.05 0.00 92 1025.7
20191116124941 29 111 3.0 8.0 0.00 0.05 0.00 92 1025.7
20191116124833 29 131 3.0 8.0 0.00 0.05 0.00 92 1025.7
20191116124727 29 111 3.0 8.0 0.00 0.05 0.00 92 1025.7
20191116124626 29 126 3.0 8.0 0.00 0.05 0.00 92 1025.7
20191116124540 29 133 4.0 8.0 0.00 0.05 0.00 92 1025.7
20191116124433 29 131 4.0 8.0 0.00 0.05 0.00 92 1025.6
20191116124327 29 101 4.0 8.0 0.00 0.05 0.00 92 1025.6
20191116124233 29 107 4.0 8.0 0.00 0.05 0.00 92 1025.6
20191116124128 29 117 4.0 8.0 0.00 0.05 0.00 92 1025.6
20191116124043 29 98 4.0 8.0 0.00 0.05 0.00 92 1025.6
20191116123937 29 112 4.0 8.0 0.00 0.05 0.00 92 1025.6
20191116123836 29 158 3.0 8.0 0.00 0.05 0.00 92 1025.6
20191116123728 29 131 3.0 8.0 0.00 0.05 0.00 92 1025.6
20191116123643 29 56 4.0 8.0 0.00 0.05 0.00 92 1025.6
20191116123537 29 101 4.0 8.0 0.00 0.05 0.00 92 1025.6
20191116123433 29 131 3.0 8.0 0.00 0.05 0.00 92 1025.7
20191116123326 29 132 3.0 8.0 0.00 0.05 0.00 92 1025.7
20191116123242 29 130 3.0 8.0 0.00 0.05 0.00 92 1025.7
20191116123126 29 170 4.0 8.0 0.00 0.05 0.00 92 1025.6
20191116123025 29 141 5.0 8.0 0.00 0.05 0.00 92 1025.6
20191116122937 29 159 4.0 13.0 0.00 0.05 0.00 92 1025.6
20191116122833 29 107 4.0 13.0 0.00 0.05 0.00 92 1025.6
20191116122755 29 122 4.0 13.0 0.00 0.05 0.00 92 1025.6
20191116122710 29 132 4.0 13.0 0.00 0.05 0.00 92 1025.6
20191116122446 29 147 4.0 13.0 0.00 0.05 0.00 92 1025.5
20191116122343 29 147 4.0 13.0 0.00 0.05 0.00 92 1025.5
20191116122234 29 103 4.0 13.0 0.00 0.05 0.00 92 1025.5
20191116122132 29 125 5.0 13.0 0.00 0.05 0.00 92 1025.5
20191116122045 29 102 5.0 13.0 0.00 0.05 0.00 92 1025.5
20191116121836 29 133 4.0 11.0 0.00 0.05 0.00 92 1025.5
20191116121731 29 119 4.0 11.0 0.00 0.05 0.00 92 1025.5
20191116121625 29 134 5.0 11.0 0.00 0.05 0.00 92 1025.5
20191116121540 29 117 5.0 11.0 0.00 0.05 0.00 92 1025.5
20191116121431 29 146 5.0 11.0 0.00 0.05 0.00 92 1025.5
20191116121329 29 105 5.0 11.0 0.00 0.05 0.00 92 1025.5
20191116121240 29 86 4.0 11.0 0.00 0.05 0.00 92 1025.4
20191116121133 29 132 5.0 11.0 0.00 0.05 0.00 92 1025.5
20191116121038 29 113 5.0 11.0 0.00 0.05 0.00 92 1025.5
20191116120930 29 104 6.0 11.0 0.00 0.05 0.00 92 1025.5
20191116120824 29 115 5.0 9.0 0.00 0.05 0.00 92 1025.5
20191116120742 29 86 5.0 9.0 0.00 0.05 0.00 92 1025.5
20191116120637 29 125 5.0 9.0 0.00 0.05 0.00 92 1025.6
20191116120537 29 115 4.0 9.0 0.00 0.05 0.00 92 1025.5
20191116120430 29 92 4.0 9.0 0.00 0.05 0.00 92 1025.6
20191116120337 29 103 5.0 9.0 0.00 0.05 0.00 92 1025.6
20191116120144 29 119 5.0 9.0 0.00 0.05 0.00 92 1025.6
20191116120035 29 153 5.0 9.0 0.00 0.05 0.00 92 1025.6
20191116115926 29 116 4.0 9.0 0.00 0.05 0.00 92 1025.7
20191116115843 29 125 4.0 9.0 0.00 0.05 0.00 92 1025.7
20191116115742 29 97 5.0 9.0 0.00 0.05 0.00 92 1025.7
20191116115634 29 115 5.0 9.0 0.00 0.05 0.00 92 1025.7
20191116115532 29 122 4.0 9.0 0.00 0.05 0.00 92 1025.7
20191116115426 29 109 4.0 9.0 0.00 0.05 0.00 92 1025.7
20191116115341 28 122 5.0 9.0 0.00 0.05 0.00 92 1025.7
20191116115231 28 115 5.0 9.0 0.00 0.05 0.00 92 1025.7
20191116115126 28 102 4.0 8.0 0.00 0.05 0.00 92 1025.7
20191116115039 28 126 3.0 8.0 0.00 0.05 0.00 92 1025.7
20191116114939 28 124 3.0 8.0 0.00 0.05 0.00 92 1025.7
20191116114833 28 148 4.0 8.0 0.00 0.05 0.00 92 1025.8
20191116114740 28 100 4.0 8.0 0.00 0.05 0.00 92 1025.8
20191116114636 28 123 4.0 8.0 0.00 0.05 0.00 92 1025.7
20191116114531 28 119 4.0 8.0 0.00 0.05 0.00 92 1025.7
20191116114424 28 110 4.0 8.0 0.00 0.05 0.00 92 1025.8
20191116114339 28 99 3.0 8.0 0.00 0.05 0.00 92 1025.8
20191116114236 28 150 4.0 8.0 0.00 0.05 0.00 92 1025.8
20191116114125 29 136 4.0 8.0 0.00 0.05 0.00 92 1025.9
20191116113932 29 122 3.0 8.0 0.00 0.05 0.00 92 1025.9
20191116113826 29 104 3.0 8.0 0.00 0.05 0.00 92 1025.9
20191116113742 29 120 3.0 8.0 0.00 0.05 0.00 92 1025.9
20191116113637 29 123 3.0 8.0 0.00 0.05 0.00 92 1025.9
20191116113532 29 105 3.0 8.0 0.00 0.05 0.00 92 1025.9
20191116113434 29 116 4.0 8.0 0.00 0.05 0.00 92 1025.9
20191116113341 29 111 4.0 8.0 0.00 0.05 0.00 92 1025.9
20191116113232 29 96 3.0 8.0 0.00 0.05 0.00 92 1026.0
20191116113125 29 128 3.0 6.0 0.00 0.05 0.00 92 1025.9
20191116113042 29 113 3.0 6.0 0.00 0.05 0.00 92 1025.9
20191116112936 29 124 3.0 6.0 0.00 0.05 0.00 92 1025.9
20191116112831 29 107 3.0 6.0 0.00 0.05 0.00 92 1026.0
20191116112727 29 144 3.0 6.0 0.00 0.05 0.00 92 1025.9
20191116112625 29 114 3.0 6.0 0.00 0.05 0.00 92 1025.9
20191116112436 29 118 3.0 6.0 0.00 0.05 0.00 92 1025.9
20191116112332 29 138 3.0 6.0 0.00 0.05 0.00 92 1025.9
20191116112228 29 158 3.0 6.0 0.00 0.05 0.00 92 1025.9
20191116112124 29 130 3.0 7.0 0.00 0.05 0.00 92 1025.9
20191116112040 29 136 3.0 6.0 0.00 0.05 0.00 92 1025.9
20191116111940 29 132 3.0 6.0 0.00 0.05 0.00 92 1026.0
20191116111833 29 132 3.0 6.0 0.00 0.05 0.00 92 1026.0
20191116111728 29 145 3.0 7.0 0.00 0.05 0.00 92 1025.9
20191116111643 29 101 3.0 7.0 0.00 0.05 0.00 92 1025.9
20191116111538 29 127 3.0 7.0 0.00 0.05 0.00 92 1025.9
20191116111433 29 145 3.0 8.0 0.00 0.05 0.00 92 1025.9
20191116111328 29 96 3.0 8.0 0.00 0.05 0.00 92 1025.9
20191116111237 29 133 3.0 8.0 0.00 0.05 0.00 92 1025.9
20191116111136 29 138 3.0 8.0 0.00 0.05 0.00 92 1025.9
20191116111026 29 113 4.0 8.0 0.00 0.05 0.00 92 1025.9
20191116110938 29 100 4.0 8.0 0.00 0.05 0.00 92 1025.9
20191116110836 29 119 3.0 8.0 0.00 0.05 0.00 92 1025.9
20191116110731 29 130 3.0 8.0 0.00 0.05 0.00 92 1025.9
20191116110625 29 133 4.0 8.0 0.00 0.05 0.00 92 1026.0
20191116110538 29 144 3.0 8.0 0.00 0.05 0.00 92 1025.9
20191116110437 29 108 3.0 8.0 0.00 0.05 0.00 92 1025.9
20191116110334 29 114 3.0 8.0 0.00 0.05 0.00 92 1026.0
20191116110228 29 102 3.0 8.0 0.00 0.05 0.00 92 1026.0
20191116110144 29 115 3.0 8.0 0.00 0.05 0.00 92 1026.0
20191116110038 29 113 3.0 8.0 0.00 0.05 0.00 92 1026.0
20191116105929 29 139 4.0 8.0 0.00 0.05 0.00 92 1026.0
20191116105825 29 124 3.0 8.0 0.00 0.05 0.00 92 1026.0
20191116105740 29 113 3.0 7.0 0.00 0.05 0.00 92 1026.0
20191116105638 29 109 3.0 7.0 0.00 0.05 0.00 92 1026.0
20191116105533 29 126 3.0 7.0 0.00 0.05 0.00 92 1026.0
20191116105426 29 111 4.0 7.0 0.00 0.05 0.00 92 1026.0
20191116105342 29 130 4.0 7.0 0.00 0.05 0.00 92 1026.0
20191116105231 29 97 4.0 7.0 0.00 0.05 0.00 92 1026.0
20191116105125 29 142 4.0 9.0 0.00 0.05 0.00 92 1026.0
20191116105039 29 121 3.0 9.0 0.00 0.05 0.00 92 1026.0
20191116104935 28 125 3.0 9.0 0.00 0.05 0.00 92 1026.0
20191116104830 28 127 4.0 9.0 0.00 0.05 0.00 92 1026.0
20191116104725 28 120 4.0 9.0 0.00 0.05 0.00 92 1026.0
20191116104639 28 92 3.0 9.0 0.00 0.05 0.00 92 1026.0
20191116104534 28 130 4.0 9.0 0.00 0.05 0.00 92 1026.0
20191116104425 28 116 4.0 9.0 0.00 0.05 0.00 92 1026.0
20191116104336 28 137 4.0 9.0 0.00 0.05 0.00 92 1026.0
20191116104232 28 119 4.0 9.0 0.00 0.05 0.00 92 1025.9
20191116104131 28 121 4.0 8.0 0.00 0.05 0.00 92 1026.0
20191116104037 28 95 4.0 8.0 0.00 0.05 0.00 92 1026.0
20191116103932 28 128 4.0 7.0 0.00 0.05 0.00 92 1026.0
20191116103826 28 117 4.0 7.0 0.00 0.05 0.00 92 1026.0
20191116103743 28 118 3.0 7.0 0.00 0.05 0.00 92 1026.0
20191116103636 28 119 3.0 7.0 0.00 0.05 0.00 92 1026.0
20191116103531 28 123 3.0 7.0 0.00 0.05 0.00 92 1026.0
20191116103443 28 148 3.0 7.0 0.00 0.05 0.00 92 1026.0
20191116103334 28 111 3.0 7.0 0.00 0.05 0.00 92 1026.0
20191116103230 28 124 4.0 7.0 0.00 0.05 0.00 92 1026.0
20191116103124 28 113 3.0 7.0 0.00 0.05 0.00 92 1026.0
20191116103042 28 102 3.0 7.0 0.00 0.05 0.00 92 1026.0
20191116102936 28 115 4.0 7.0 0.00 0.05 0.00 92 1025.9
20191116102827 28 86 4.0 7.0 0.00 0.05 0.00 92 1026.0
20191116102742 28 117 4.0 7.0 0.00 0.05 0.00 92 1026.0
20191116102641 28 122 4.0 7.0 0.00 0.05 0.00 92 1026.0
20191116102530 28 158 3.0 7.0 0.00 0.05 0.00 92 1025.9
20191116102440 28 123 4.0 7.0 0.00 0.05 0.00 92 1025.9
20191116102336 28 147 4.0 7.0 0.00 0.05 0.00 92 1025.9
20191116102231 28 122 4.0 7.0 0.00 0.05 0.00 92 1025.9
20191116102141 28 115 3.0 8.0 0.00 0.05 0.00 92 1025.9
20191116102035 28 101 3.0 8.0 0.00 0.05 0.00 92 1026.0
20191116101929 28 122 3.0 6.0 0.00 0.05 0.00 92 1026.0
20191116101827 28 142 3.0 6.0 0.00 0.05 0.00 92 1026.0
20191116101743 28 101 4.0 6.0 0.00 0.05 0.00 92 1026.0
20191116101638 28 100 3.0 7.0 0.00 0.05 0.00 92 1026.0
20191116101532 28 122 3.0 7.0 0.00 0.05 0.00 92 1026.0
20191116101427 28 120 3.0 6.0 0.00 0.05 0.00 92 1026.0
20191116101343 28 113 3.0 6.0 0.00 0.05 0.00 92 1026.0
20191116101238 28 117 3.0 6.0 0.00 0.05 0.00 92 1026.0
20191116101136 28 115 3.0 6.0 0.00 0.05 0.00 92 1026.1
20191116101033 28 96 3.0 6.0 0.00 0.05 0.00 92 1026.0
20191116100926 28 160 3.0 7.0 0.00 0.05 0.00 92 1026.1
20191116100843 28 132 3.0 7.0 0.00 0.05 0.00 92 1026.1
20191116100728 28 121 3.0 7.0 0.00 0.05 0.00 92 1026.2
20191116100643 28 117 3.0 7.0 0.00 0.05 0.00 92 1026.2
20191116100539 28 118 3.0 7.0 0.00 0.05 0.00 92 1026.1
20191116100434 28 146 4.0 7.0 0.00 0.05 0.00 92 1026.1
20191116100335 28 105 4.0 7.0 0.00 0.05 0.00 92 1026.1
20191116100228 28 103 3.0 7.0 0.00 0.05 0.00 92 1026.1
20191116100150 28 130 3.0 7.0 0.00 0.05 0.00 92 1026.1
20191116100038 28 119 3.0 7.0 0.00 0.05 0.00 92 1026.1
20191116095928 28 144 3.0 7.0 0.00 0.05 0.00 92 1026.1
20191116095824 28 83 3.0 7.0 0.00 0.05 0.00 92 1026.1
20191116095738 28 131 3.0 7.0 0.00 0.05 0.00 92 1026.2
20191116095636 28 123 2.0 7.0 0.00 0.05 0.00 92 1026.1
20191116095543 28 121 2.0 7.0 0.00 0.05 0.00 92 1026.1
20191116095438 28 128 3.0 7.0 0.00 0.05 0.00 92 1026.1
20191116095332 28 101 3.0 8.0 0.00 0.05 0.00 92 1026.1
20191116095228 29 113 3.0 8.0 0.00 0.05 0.00 92 1026.1
20191116095125 29 113 3.0 8.0 0.00 0.05 0.00 92 1026.1
20191116095040 29 113 3.0 8.0 0.00 0.05 0.00 92 1026.1
20191116094935 29 113 3.0 8.0 0.00 0.05 0.00 92 1026.2
20191116094833 29 87 3.0 8.0 0.00 0.05 0.00 92 1026.2
20191116094724 29 115 3.0 8.0 0.00 0.05 0.00 92 1026.2
20191116094637 29 103 3.0 8.0 0.00 0.05 0.00 92 1026.2
20191116094532 29 129 3.0 8.0 0.00 0.05 0.00 92 1026.2
20191116094427 29 98 4.0 8.0 0.00 0.05 0.00 92 1026.2
20191116094340 29 121 3.0 7.0 0.00 0.05 0.00 92 1026.1
20191116094235 29 121 3.0 7.0 0.00 0.05 0.00 92 1026.2
20191116094135 29 126 4.0 7.0 0.00 0.05 0.00 92 1026.2
20191116094031 29 99 3.0 8.0 0.00 0.05 0.00 92 1026.2
20191116093927 29 137 3.0 8.0 0.00 0.05 0.00 92 1026.2
20191116093840 29 143 3.0 8.0 0.00 0.05 0.00 92 1026.2
20191116093731 29 139 3.0 8.0 0.00 0.05 0.00 92 1026.2
20191116093643 29 135 4.0 8.0 0.00 0.05 0.00 92 1026.2
20191116093539 29 108 4.0 8.0 0.00 0.05 0.00 92 1026.2
20191116093435 29 109 3.0 8.0 0.00 0.05 0.00 92 1026.2
20191116093230 29 122 3.0 8.0 0.00 0.05 0.00 92 1026.3
20191116093125 29 114 3.0 8.0 0.00 0.05 0.00 92 1026.3
20191116093036 29 90 3.0 8.0 0.00 0.05 0.00 92 1026.3
20191116092929 29 98 4.0 8.0 0.00 0.05 0.00 92 1026.3
20191116092824 29 145 4.0 8.0 0.00 0.05 0.00 92 1026.3
20191116092736 29 117 3.0 7.0 0.00 0.05 0.00 92 1026.3
20191116092630 29 104 3.0 7.0 0.00 0.05 0.00 92 1026.3
20191116092529 29 113 3.0 8.0 0.00 0.05 0.00 92 1026.2
20191116092443 29 117 3.0 8.0 0.00 0.05 0.00 92 1026.2
20191116092336 29 132 4.0 8.0 0.00 0.05 0.00 92 1026.3
20191116092231 29 119 4.0 8.0 0.00 0.05 0.00 92 1026.3
20191116092038 29 127 3.0 8.0 0.00 0.05 0.00 92 1026.3
20191116091928 29 121 3.0 8.0 0.00 0.05 0.00 92 1026.3
20191116091827 29 115 4.0 8.0 0.00 0.05 0.00 91 1026.3
20191116091741 29 108 4.0 8.0 0.00 0.05 0.00 91 1026.3
20191116091634 29 157 4.0 8.0 0.00 0.05 0.00 91 1026.3
20191116091528 29 140 5.0 8.0 0.00 0.05 0.00 91 1026.3
20191116091337 29 109 5.0 8.0 0.00 0.05 0.00 92 1026.4
20191116091127 29 110 4.0 8.0 0.00 0.05 0.00 92 1026.4
20191116091038 29 109 4.0 7.0 0.00 0.05 0.00 92 1026.4
20191116090925 29 118 4.0 8.0 0.00 0.05 0.00 92 1026.4
20191116090829 29 128 4.0 8.0 0.00 0.05 0.00 92 1026.4
20191116090738 29 138 4.0 8.0 0.00 0.05 0.00 92 1026.4
20191116090633 29 107 5.0 8.0 0.00 0.05 0.00 92 1026.4
20191116090530 29 98 4.0 8.0 0.00 0.05 0.00 92 1026.4
20191116090426 29 110 4.0 8.0 0.00 0.05 0.00 91 1026.4
20191116090339 29 113 4.0 8.0 0.00 0.05 0.00 91 1026.4
20191116090237 29 90 4.0 8.0 0.00 0.05 0.00 91 1026.4
20191116090130 29 115 4.0 8.0 0.00 0.05 0.00 91 1026.4
20191116090024 29 115 4.0 8.0 0.00 0.05 0.00 91 1026.4
20191116085941 29 140 3.0 6.0 0.00 0.05 0.00 91 1026.4
20191116085837 29 100 3.0 6.0 0.00 0.05 0.00 91 1026.5
20191116085732 29 104 3.0 6.0 0.00 0.05 0.00 91 1026.5
20191116085626 29 116 2.0 4.0 0.00 0.05 0.00 91 1026.5
20191116085526 29 117 2.0 4.0 0.00 0.05 0.00 91 1026.5
20191116085441 29 123 2.0 4.0 0.00 0.05 0.00 91 1026.5
20191116085329 29 115 2.0 4.0 0.00 0.05 0.00 91 1026.5
20191116085227 29 111 2.0 4.0 0.00 0.05 0.00 92 1026.5
20191116085141 29 139 2.0 4.0 0.00 0.05 0.00 91 1026.5
20191116085032 29 138 2.0 4.0 0.00 0.05 0.00 92 1026.5
20191116084945 29 132 2.0 4.0 0.00 0.05 0.00 92 1026.5
20191116084839 29 113 2.0 4.0 0.00 0.05 0.00 92 1026.5
20191116084738 29 115 2.0 6.0 0.00 0.05 0.00 92 1026.5
20191116084634 29 121 2.0 6.0 0.00 0.05 0.00 92 1026.5
20191116084526 29 146 2.0 6.0 0.00 0.05 0.00 92 1026.6
20191116084441 29 126 2.0 6.0 0.00 0.05 0.00 92 1026.6
20191116084335 30 108 2.0 7.0 0.00 0.05 0.00 92 1026.5
20191116084125 30 132 3.0 7.0 0.00 0.05 0.00 91 1026.5
20191116084039 30 116 3.0 7.0 0.00 0.05 0.00 91 1026.5
20191116083938 30 104 3.0 7.0 0.00 0.05 0.00 91 1026.5
20191116083832 30 106 3.0 7.0 0.00 0.05 0.00 91 1026.4
20191116083745 30 118 3.0 7.0 0.00 0.05 0.00 91 1026.4
20191116083630 30 145 4.0 7.0 0.00 0.05 0.00 91 1026.5
20191116083551 30 128 4.0 7.0 0.00 0.05 0.00 91 1026.5
20191116083504 30 120 3.0 7.0 0.00 0.05 0.00 91 1026.4
20191116083339 30 103 2.0 5.0 0.00 0.05 0.00 91 1026.5
20191116083232 30 117 2.0 5.0 0.00 0.05 0.00 91 1026.5
20191116083131 30 101 2.0 6.0 0.00 0.05 0.00 91 1026.5
20191116083026 30 123 3.0 6.0 0.00 0.05 0.00 91 1026.5
20191116082942 30 117 3.0 6.0 0.00 0.05 0.00 91 1026.5
20191116082836 30 121 3.0 6.0 0.00 0.05 0.00 91 1026.5
20191116082732 30 107 3.0 6.0 0.00 0.05 0.00 91 1026.5
20191116082628 30 132 3.0 6.0 0.00 0.05 0.00 91 1026.5
20191116082543 30 128 3.0 6.0 0.00 0.05 0.00 91 1026.5
20191116082447 30 119 3.0 6.0 0.00 0.05 0.00 91 1026.5
20191116082340 30 131 3.0 5.0 0.00 0.05 0.00 91 1026.5
20191116082232 30 161 3.0 5.0 0.00 0.05 0.00 91 1026.5
20191116082124 30 142 3.0 5.0 0.00 0.05 0.00 91 1026.5
20191116082041 30 109 2.0 5.0 0.00 0.05 0.00 91 1026.5
20191116081935 30 113 2.0 5.0 0.00 0.05 0.00 91 1026.5
20191116081828 30 132 3.0 5.0 0.00 0.05 0.00 91 1026.5
20191116081744 30 131 3.0 4.0 0.00 0.05 0.00 91 1026.5
20191116081642 30 115 3.0 4.0 0.00 0.05 0.00 91 1026.5
20191116081545 30 116 3.0 4.0 0.00 0.05 0.00 91 1026.5
20191116081433 30 128 3.0 4.0 0.00 0.05 0.00 91 1026.5
20191116081328 30 108 2.0 4.0 0.00 0.05 0.00 91 1026.5
20191116081230 30 124 2.0 4.0 0.00 0.05 0.00 91 1026.5
20191116081136 30 134 2.0 4.0 0.00 0.05 0.00 91 1026.5
20191116081033 30 133 2.0 5.0 0.00 0.05 0.00 91 1026.5
20191116080929 30 126 3.0 4.0 0.00 0.05 0.00 91 1026.5
20191116080825 30 127 3.0 5.0 0.00 0.05 0.00 91 1026.5
20191116080739 30 142 3.0 4.0 0.00 0.05 0.00 91 1026.5
20191116080642 30 116 3.0 4.0 0.00 0.05 0.00 91 1026.5
20191116080539 30 105 2.0 5.0 0.00 0.05 0.00 91 1026.6
20191116080426 30 101 3.0 5.0 0.00 0.05 0.00 91 1026.6
20191116080341 30 117 3.0 4.0 0.00 0.05 0.00 91 1026.6
20191116080236 30 114 2.0 4.0 0.00 0.05 0.00 91 1026.6
20191116080132 30 109 2.0 5.0 0.00 0.05 0.00 91 1026.5
20191116080029 30 132 2.0 5.0 0.00 0.05 0.00 91 1026.5
20191116075933 30 115 2.0 5.0 0.00 0.05 0.00 91 1026.5
20191116075828 30 109 2.0 5.0 0.00 0.05 0.00 91 1026.5
20191116075745 30 107 2.0 5.0 0.00 0.05 0.00 91 1026.5
20191116075634 30 100 2.0 5.0 0.00 0.05 0.00 91 1026.5
20191116075529 30 142 2.0 5.0 0.00 0.05 0.00 91 1026.5
20191116075425 30 124 2.0 5.0 0.00 0.05 0.00 91 1026.5
20191116075340 30 117 3.0 5.0 0.00 0.05 0.00 91 1026.5
20191116075239 30 136 3.0 5.0 0.00 0.05 0.00 91 1026.5
20191116075135 30 111 3.0 5.0 0.00 0.05 0.00 91 1026.5
20191116075026 30 101 3.0 5.0 0.00 0.05 0.00 91 1026.5
20191116074943 30 147 3.0 7.0 0.00 0.05 0.00 91 1026.5
20191116074835 30 128 3.0 7.0 0.00 0.05 0.00 91 1026.5
20191116074728 30 130 2.0 7.0 0.00 0.05 0.00 91 1026.4
20191116074637 30 126 2.0 7.0 0.00 0.05 0.00 91 1026.5
20191116074532 30 149 2.0 7.0 0.00 0.05 0.00 91 1026.4